Provisional Data: Susquehanna River near Binghamton, NY


Please select a monitoring station.
Please select start date.
Please select start date.

Toggle Unit: C/F Toggle Unit: C/F
Sample Time Temperature (C) Temperature (F) Specific Conductivity (mS/cm) pH   Turbidity (NTU+) DO (mg/L)
2/8/2023 12:00:00 AM 5.9723 4.0552
2/8/2023 12:15:00 AM 5.9726 4.0415
2/8/2023 12:30:00 AM 5.9728 4.0551
2/8/2023 12:45:00 AM 5.9724 4.4627
2/8/2023 1:00:00 AM 5.9707 4.5895
2/8/2023 1:15:00 AM 5.9687 4.5442
2/8/2023 1:30:00 AM 5.968 4.289
2/8/2023 1:45:00 AM 5.969 4.1648
2/8/2023 2:00:00 AM 5.9683 4.1357
2/8/2023 2:15:00 AM 5.976 4.0718
2/8/2023 2:30:00 AM 6.0057 4.0334
2/8/2023 2:45:00 AM 6.0592 4
2/8/2023 3:00:00 AM 6.0817 3.9724
2/8/2023 3:15:00 AM 6.0484 3.8896
2/8/2023 3:30:00 AM 6.0324 3.903
2/8/2023 3:45:00 AM 6.0237 3.8737
2/8/2023 4:00:00 AM 6.0205 3.8562
2/8/2023 4:15:00 AM 6.0181 3.8029
2/8/2023 4:30:00 AM 6.0263 3.7433
2/8/2023 4:45:00 AM 6.2378 3.7923
2/8/2023 5:00:00 AM 6.163 3.8478
2/8/2023 5:15:00 AM 6.0208 3.7653
2/8/2023 5:30:00 AM 5.995 3.6486
2/8/2023 5:45:00 AM 5.9878 3.7
2/8/2023 6:00:00 AM 5.9808 3.7046
2/8/2023 6:15:00 AM 5.9783 3.7639
2/8/2023 6:30:00 AM 5.9775 3.7563
2/8/2023 6:45:00 AM 5.9767 3.6772
2/8/2023 7:00:00 AM 5.9795 3.6052
2/8/2023 7:15:00 AM 5.9803 3.5361
2/8/2023 7:30:00 AM 5.9772 3.4623
2/8/2023 7:45:00 AM 5.9771 3.4535
2/8/2023 8:00:00 AM 5.9767 3.452
2/8/2023 8:15:00 AM 5.9769 3.4423
2/8/2023 8:30:00 AM 5.9772 3.4507
2/8/2023 8:45:00 AM 5.978 3.4
2/8/2023 9:00:00 AM 5.9767 3.376
2/8/2023 9:15:00 AM 5.9803 3.3313
2/8/2023 9:30:00 AM 5.9862 3.3393
2/8/2023 9:45:00 AM 6.0032 3.3414
2/8/2023 10:00:00 AM 6.0156 3.3733
2/8/2023 10:15:00 AM 6.0249 3.2987
2/8/2023 10:30:00 AM 6.0323 3.3191
2/8/2023 10:45:00 AM 6.0326 3.2909
2/8/2023 11:00:00 AM 6.0308 3.2603
2/8/2023 11:15:00 AM 6.0316 3.235
2/8/2023 11:30:00 AM 6.0356 3.2841
2/8/2023 11:45:00 AM 6.041 3.3
2/8/2023 12:00:00 PM 6.0347 3.3113
2/8/2023 12:15:00 PM 6.0185 3.6082
2/8/2023 12:30:00 PM 6.0158 3.4438
2/8/2023 12:45:00 PM 6.015 3.4363
2/8/2023 1:00:00 PM 6.0113 3.4572
2/8/2023 1:15:00 PM 6.0111 3.4063
2/8/2023 1:30:00 PM 6.0146 3.3503
2/8/2023 1:45:00 PM 6.0155 3.4515
2/8/2023 2:00:00 PM 6.0134 3.6664
2/8/2023 2:15:00 PM 6.0122 3.8649
2/8/2023 2:30:00 PM 6.014 3.8682
2/8/2023 2:45:00 PM 6.0123 3.7759
2/8/2023 3:00:00 PM 6.0138 3.777
2/8/2023 3:15:00 PM 6.016 3.774
2/8/2023 3:30:00 PM 6.016 3.7981
2/8/2023 3:45:00 PM 6.0157 3.847
2/8/2023 4:00:00 PM 6.0162 4.4314
2/8/2023 4:15:00 PM 6.0189 5.4236
2/8/2023 4:30:00 PM 6.0213 5.4208
2/8/2023 4:45:00 PM 6.0218 5.5764
2/8/2023 5:00:00 PM 6.024 6.0373
2/8/2023 5:15:00 PM 6.0261 7.1003
2/8/2023 5:30:00 PM 6.0255 7.8813
2/8/2023 5:45:00 PM 6.027 8.4
2/8/2023 6:00:00 PM 6.0247 9.9059
2/8/2023 6:15:00 PM 6.0195 10.5041
2/8/2023 6:30:00 PM 6.0143 11.0625
2/8/2023 6:45:00 PM 6.0064 10.817
2/8/2023 7:00:00 PM 5.999 10.6954
2/8/2023 7:15:00 PM 5.9932 10.5686
2/8/2023 7:30:00 PM 5.9882 10.2068
2/8/2023 7:45:00 PM 5.9845 9.8271
2/8/2023 8:00:00 PM 5.9809 10.6729
2/8/2023 8:15:00 PM 5.976 10.1633
2/8/2023 8:30:00 PM 5.972 9.3537
2/8/2023 8:45:00 PM 5.9696 9.2
2/8/2023 9:00:00 PM 5.9641 8.6306
2/8/2023 9:15:00 PM 5.9605 9.1343
2/8/2023 9:30:00 PM 5.9559 8.7059
2/8/2023 9:45:00 PM 5.9525 8.4543
2/8/2023 10:00:00 PM 5.9488 7.9994
2/8/2023 10:15:00 PM 5.9482 7.3945
2/8/2023 10:30:00 PM 5.9452 7.0956
2/8/2023 10:45:00 PM 5.9433 6.9848
2/8/2023 11:00:00 PM 5.9416 7.3369
2/8/2023 11:15:00 PM 5.9465 7.575
2/8/2023 11:30:00 PM 5.9628 7.9568
2/8/2023 11:45:00 PM 5.9654 7.1
2/9/2023 12:00:00 AM 5.9804 6.2798
2/9/2023 12:15:00 AM 5.9836 6.1106
2/9/2023 12:30:00 AM 5.9847 5.9637
2/9/2023 12:45:00 AM 5.9812 5.7189
2/9/2023 1:00:00 AM 5.9794 5.579
2/9/2023 1:15:00 AM 5.973 5.4623
2/9/2023 1:30:00 AM 5.9727 5.3866
2/9/2023 1:45:00 AM 5.9414 5.2559
2/9/2023 2:00:00 AM 5.9289 5.2472
2/9/2023 2:15:00 AM 5.9238 5.2247
2/9/2023 2:30:00 AM 5.9236 5.138
2/9/2023 2:45:00 AM 5.9248 5.1
2/9/2023 3:00:00 AM 5.9289 5.1702
2/9/2023 3:15:00 AM 5.9287 5.1698
2/9/2023 3:30:00 AM 5.9319 5.2603
2/9/2023 3:45:00 AM 5.9341 5.1729
2/9/2023 4:00:00 AM 5.9337 5.2369
2/9/2023 4:15:00 AM 5.9338 5.2226
2/9/2023 4:30:00 AM 5.9338 5.1761
2/9/2023 4:45:00 AM 5.9351 5.2372
2/9/2023 5:00:00 AM 5.9387 5.4201
2/9/2023 5:15:00 AM 5.9399 5.6999
2/9/2023 5:30:00 AM 5.9416 5.7738
2/9/2023 5:45:00 AM 5.9444 5.8
2/9/2023 6:00:00 AM 5.9434 5.7413
2/9/2023 6:15:00 AM 5.9432 5.7654
2/9/2023 6:30:00 AM 5.9434 5.8078
2/9/2023 6:45:00 AM 5.9438 5.7924
2/9/2023 7:00:00 AM 5.9448 5.849
2/9/2023 7:15:00 AM 5.9468 5.7987
2/9/2023 7:30:00 AM 5.9485 5.7253
2/9/2023 7:45:00 AM 5.9479 5.5835
2/9/2023 8:00:00 AM 5.9485 5.4838
2/9/2023 8:15:00 AM 5.9484 5.3461
2/9/2023 8:30:00 AM 5.9511 5.301
2/9/2023 8:45:00 AM 5.9528 5.1
2/9/2023 9:00:00 AM 5.97 5.0616
2/9/2023 9:15:00 AM 5.9933 4.8171
2/9/2023 9:30:00 AM 6.0184 4.7355
2/9/2023 9:45:00 AM 6.0844 4.7829
2/9/2023 10:00:00 AM 6.3075 5.3387
2/9/2023 10:15:00 AM 6.0975 7.1607
2/9/2023 10:30:00 AM 6.033 9.5374
2/9/2023 10:45:00 AM 6.0206 11.1117
2/9/2023 11:00:00 AM 6.0165 11.3661
2/9/2023 11:15:00 AM 6.0159 10.7727
2/9/2023 11:30:00 AM 6.0122 9.785
2/9/2023 11:45:00 AM 6.0088 9.2
2/9/2023 12:00:00 PM 6.0043 7.5977
2/9/2023 12:15:00 PM 6.0014 6.7543
2/9/2023 12:30:00 PM 5.9988 6.1144
2/9/2023 12:45:00 PM 5.9962 5.6319
2/9/2023 1:00:00 PM 5.9962 5.3042
2/9/2023 1:15:00 PM 5.9964 5.0834
2/9/2023 1:30:00 PM 5.9961 4.9143
2/9/2023 1:45:00 PM 5.9969 4.788
2/9/2023 2:00:00 PM 5.9965 4.7512
2/9/2023 2:15:00 PM 5.9993 4.7451
2/9/2023 2:30:00 PM 6.0015 4.7642
2/9/2023 2:45:00 PM 6.0039 4.8184
2/9/2023 3:00:00 PM 6.0063 4.9829
2/9/2023 3:15:00 PM 6.006 5.187
2/9/2023 3:30:00 PM 6.0062 5.5168
2/9/2023 3:45:00 PM 6.0059 5.8938
2/9/2023 4:00:00 PM 6.0017 6.4227
2/9/2023 4:15:00 PM 5.9991 7.1078
2/9/2023 4:30:00 PM 5.9933 8.0655
2/9/2023 4:45:00 PM 5.991 9.0683
2/9/2023 5:00:00 PM 5.9871 10.8635
2/9/2023 5:15:00 PM 5.983 12.978
2/9/2023 5:30:00 PM 5.9811 15.255
2/9/2023 5:45:00 PM 5.9738 16.6
2/9/2023 6:00:00 PM 5.9659 16.1085
2/9/2023 6:15:00 PM 5.9621 17.7426
2/9/2023 6:30:00 PM 5.9571 8.3816
2/9/2023 6:45:00 PM 5.9479 8.5203
2/9/2023 7:00:00 PM 5.9432 8.7667
2/9/2023 7:15:00 PM 5.9382 8.4805
2/9/2023 7:30:00 PM 5.9341 7.861
2/9/2023 7:45:00 PM 5.9332 8.2495
2/9/2023 8:00:00 PM 5.9287 7.8818
2/9/2023 8:15:00 PM 5.9281 8.692
2/9/2023 8:30:00 PM 5.9236 9.0058
2/9/2023 8:45:00 PM 5.9262 9.2
2/9/2023 9:00:00 PM 5.9188 10.4954
2/9/2023 9:15:00 PM 5.9156 10.6417
2/9/2023 9:30:00 PM 5.9115 9.0168
2/9/2023 9:45:00 PM 5.9138 8.5809
2/9/2023 10:00:00 PM 5.9137 8.8618
2/9/2023 10:15:00 PM 5.9135 9.7231
2/9/2023 10:30:00 PM 5.9095 9.9691
2/9/2023 10:45:00 PM 5.9088 10.2572
2/9/2023 11:00:00 PM 5.9089 11.0683
2/9/2023 11:15:00 PM 5.9043 11.3726
2/9/2023 11:30:00 PM 5.9045 12.4695
2/9/2023 11:45:00 PM 5.9052 12.7001
2/10/2023 12:00:00 AM 5.8992 14.0654
2/10/2023 12:15:00 AM 5.899 14.3929
2/10/2023 12:30:00 AM 5.8951 13.2396
2/10/2023 12:45:00 AM 5.8959 13.0781
2/10/2023 1:00:00 AM 5.8969 14.1027
2/10/2023 1:15:00 AM 5.8941 14.2414
2/10/2023 1:30:00 AM 5.8946 14.1463
2/10/2023 1:45:00 AM 5.8934 14.9364
2/10/2023 2:00:00 AM 5.8899 15.6999
2/10/2023 2:15:00 AM 5.8863 16.0993
2/10/2023 2:30:00 AM 5.885 16.0374
2/10/2023 2:45:00 AM 5.8842 15.5
2/10/2023 3:00:00 AM 5.8848 13.7454
2/10/2023 3:15:00 AM 5.8844 12.6052
2/10/2023 3:30:00 AM 5.8848 11.0544
2/10/2023 3:45:00 AM 5.8858 10.2523
2/10/2023 4:00:00 AM 5.8882 10.0787
2/10/2023 4:15:00 AM 5.8886 9.1312
2/10/2023 4:30:00 AM 5.8887 8.6035
2/10/2023 4:45:00 AM 5.8877 9.1666
2/10/2023 5:00:00 AM 5.8893 18.9327
2/10/2023 5:15:00 AM 5.8927 18.8408
2/10/2023 5:30:00 AM 5.8948 18.6217
2/10/2023 5:45:00 AM 5.894 18.1999
2/10/2023 6:00:00 AM 5.8945 16.8256
2/10/2023 6:15:00 AM 5.8947 16.3142
2/10/2023 6:30:00 AM 5.892 15.4734
2/10/2023 6:45:00 AM 5.8976 15.498
2/10/2023 7:00:00 AM 5.8993 15.2988
2/10/2023 7:15:00 AM 5.9003 14.9
2/10/2023 7:30:00 AM 5.903 14.4751
2/10/2023 7:45:00 AM 5.9054 12.9511
2/10/2023 8:00:00 AM 5.9101 12.4941
2/10/2023 8:15:00 AM 5.9141 12.4853
2/10/2023 8:30:00 AM 5.9185 12.275
2/10/2023 8:45:00 AM 5.9164 12.3
2/10/2023 9:00:00 AM 5.9251 12.357
2/10/2023 9:15:00 AM 5.9288 12.2014
2/10/2023 9:30:00 AM 5.933 12.2974
2/10/2023 9:45:00 AM 5.9355 12.0603
2/10/2023 10:00:00 AM 5.9385 12.1378
2/10/2023 10:15:00 AM 5.9403 12.2943
2/10/2023 10:30:00 AM 5.9431 12.0627
2/10/2023 10:45:00 AM 5.9476 11.7096
2/10/2023 11:00:00 AM 5.9481 11.489
2/10/2023 11:15:00 AM 5.9508 11.1821
2/10/2023 11:30:00 AM 5.9532 11.2987
2/10/2023 11:45:00 AM 5.9542 11.5
2/10/2023 12:00:00 PM 5.9546 12.0845
2/10/2023 12:15:00 PM 5.9575 12.3882
2/10/2023 12:30:00 PM 5.9579 11.7244
2/10/2023 12:45:00 PM 5.959 10.8785
2/10/2023 1:00:00 PM 5.9626 10.7056
2/10/2023 1:15:00 PM 5.9623 10.6777
2/10/2023 1:30:00 PM 5.9644 10.8616
2/10/2023 1:45:00 PM 5.9666 11.1519
2/10/2023 2:00:00 PM 5.9675 11.377
2/10/2023 2:15:00 PM 5.9675 11.8209
2/10/2023 2:30:00 PM 5.9675 12.3745
2/10/2023 2:45:00 PM 5.9673 12.1837
2/10/2023 3:00:00 PM 5.9677 11.9015
2/10/2023 3:15:00 PM 5.9676 11.4149
2/10/2023 3:30:00 PM 5.9679 11.3382
2/10/2023 3:45:00 PM 5.9679 11.2902
2/10/2023 4:00:00 PM 5.9675 11.3601
2/10/2023 4:15:00 PM 5.9674 10.7815
2/10/2023 4:30:00 PM 5.9674 10.7707
2/10/2023 4:45:00 PM 5.9669 10.6287
2/10/2023 5:00:00 PM 5.9652 10.6055
2/10/2023 5:15:00 PM 5.9628 10.1294
2/10/2023 5:30:00 PM 5.9626 9.931
2/10/2023 5:45:00 PM 5.9626 9.7001
2/10/2023 6:00:00 PM 5.9624 9.8907
2/10/2023 6:15:00 PM 5.9606 9.709
2/10/2023 6:30:00 PM 5.9576 9.4448
2/10/2023 6:45:00 PM 5.9576 9.3206
2/10/2023 7:00:00 PM 5.9578 9.2921
2/10/2023 7:15:00 PM 5.9571 9.1396
2/10/2023 7:30:00 PM 5.9552 8.9894
2/10/2023 7:45:00 PM 5.9525 8.8483
2/10/2023 8:00:00 PM 5.9528 8.881
2/10/2023 8:15:00 PM 5.9529 8.7292
2/10/2023 8:30:00 PM 5.9523 8.6628
2/10/2023 8:45:00 PM 5.9542 8.5
2/10/2023 9:00:00 PM 5.953 8.6921
2/10/2023 9:15:00 PM 5.9534 8.4149
2/10/2023 9:30:00 PM 5.953 8.3318
2/10/2023 9:45:00 PM 5.9536 8.4205
2/10/2023 10:00:00 PM 5.9562 8.583
2/10/2023 10:15:00 PM 5.9575 8.9682
2/10/2023 10:30:00 PM 5.958 8.8453
2/10/2023 10:45:00 PM 5.9609 8.9465
2/10/2023 11:00:00 PM 5.9621 8.8047
2/10/2023 11:15:00 PM 5.9627 8.8226
2/10/2023 11:30:00 PM 5.9643 8.7709
2/10/2023 11:45:00 PM 5.964 8.8
2/11/2023 12:00:00 AM 5.9674 8.5591
2/11/2023 12:15:00 AM 5.9671 8.9885
2/11/2023 12:30:00 AM 5.9707 8.5208
2/11/2023 12:45:00 AM 5.9714 8.4424
2/11/2023 1:00:00 AM 5.9718 8.3883
2/11/2023 1:15:00 AM 5.9722 8.9929
2/11/2023 1:30:00 AM 5.9721 8.7027
2/11/2023 1:45:00 AM 5.9733 8.4016
2/11/2023 2:00:00 AM 5.9767 8.83
2/11/2023 2:15:00 AM 5.9775 9.3684
2/11/2023 2:30:00 AM 5.9813 9.5483
2/11/2023 2:45:00 AM 5.9836 9.7
2/11/2023 3:00:00 AM 5.9832 10.0516
2/11/2023 3:15:00 AM 5.987 9.4996
2/11/2023 3:30:00 AM 5.9874 9.085
2/11/2023 3:45:00 AM 5.9906 8.9164
2/11/2023 4:00:00 AM 5.9915 8.7655
2/11/2023 4:15:00 AM 5.9926 8.8854
2/11/2023 4:30:00 AM 5.9967 8.6769
2/11/2023 4:45:00 AM 5.9965 8.3449
2/11/2023 5:00:00 AM 5.9969 8.2178
2/11/2023 5:15:00 AM 6.0004 7.9819
2/11/2023 5:30:00 AM 6.0019 7.7378
2/11/2023 5:45:00 AM 6.0004 7.6
2/11/2023 6:00:00 AM 6.0019 7.5279
2/11/2023 6:15:00 AM 6.0032 7.3825
2/11/2023 6:30:00 AM 5.9995 8.3291
2/11/2023 6:45:00 AM 6.0017 7.6817
2/11/2023 7:00:00 AM 6.0022 7.4087
2/11/2023 7:15:00 AM 6.0048 7.2702
2/11/2023 7:30:00 AM 6.0061 7.3643
2/11/2023 7:45:00 AM 6.0065 7.3459
2/11/2023 8:00:00 AM 6.0062 7.3006
2/11/2023 8:15:00 AM 6.0062 7.2063
2/11/2023 8:30:00 AM 6.0061 7.2471
2/11/2023 8:45:00 AM 6.0046 7.2
2/11/2023 9:00:00 AM 6.0067 7.1444
2/11/2023 9:15:00 AM 6.0064 7.0567
2/11/2023 9:30:00 AM 6.0064 7.108
2/11/2023 9:45:00 AM 6.0087 7.041
2/11/2023 10:00:00 AM 6.0114 7.0276
2/11/2023 10:15:00 AM 6.0113 6.9318
2/11/2023 10:30:00 AM 6.0111 6.9219
2/11/2023 10:45:00 AM 6.0153 6.8408
2/11/2023 11:00:00 AM 6.0165 6.8481
2/11/2023 11:15:00 AM 6.0155 6.8536
2/11/2023 11:30:00 AM 6.0162 6.8592
2/11/2023 11:45:00 AM 6.013 6.9
2/11/2023 12:00:00 PM 6.0206 6.8505
2/11/2023 12:15:00 PM 6.0212 6.9166
2/11/2023 12:30:00 PM 6.021 7.0236
2/11/2023 12:45:00 PM 6.021 7.0273
2/11/2023 1:00:00 PM 6.0209 7.0475
2/11/2023 1:15:00 PM 6.0221 7.1064
2/11/2023 1:30:00 PM 6.0239 7.203
2/11/2023 1:45:00 PM 6.0247 7.2004
2/11/2023 2:00:00 PM 6.0256 7.2672
2/11/2023 2:15:00 PM 6.0252 7.2401
2/11/2023 2:30:00 PM 6.025 7.2598
2/11/2023 2:45:00 PM 6.025 7.3087
2/11/2023 3:00:00 PM 6.0253 7.8647
2/11/2023 3:15:00 PM 6.0282 7.9423
2/11/2023 3:30:00 PM 6.0305 7.7696
2/11/2023 3:45:00 PM 6.0302 7.7675
2/11/2023 4:00:00 PM 6.0303 7.8216
2/11/2023 4:15:00 PM 6.0329 7.7972
2/11/2023 4:30:00 PM 6.0345 7.9372
2/11/2023 4:45:00 PM 6.0346 8.0201
2/11/2023 5:00:00 PM 6.0348 8.0142
2/11/2023 5:15:00 PM 6.0351 7.9887
2/11/2023 5:30:00 PM 6.0359 8.0017
2/11/2023 5:45:00 PM 6.034 8
2/11/2023 6:00:00 PM 6.0365 8.1504
2/11/2023 6:15:00 PM 6.038 8.1447
2/11/2023 6:30:00 PM 6.0374 8.1918
2/11/2023 6:45:00 PM 6.0367 8.1695
2/11/2023 7:00:00 PM 6.0354 8.1842
2/11/2023 7:15:00 PM 6.0355 8.2505
2/11/2023 7:30:00 PM 6.0354 8.2593
2/11/2023 7:45:00 PM 6.0353 8.3088
2/11/2023 8:00:00 PM 6.0348 8.479
2/11/2023 8:15:00 PM 6.0351 8.4297
2/11/2023 8:30:00 PM 6.0349 8.4181
2/11/2023 8:45:00 PM 6.0368 8.4
2/11/2023 9:00:00 PM 6.0353 8.4947
2/11/2023 9:15:00 PM 6.0354 9.0776
2/11/2023 9:30:00 PM 6.0352 8.9586
2/11/2023 9:45:00 PM 6.0357 8.8547
2/11/2023 10:00:00 PM 6.0377 8.817
2/11/2023 10:15:00 PM 6.0395 8.6884
2/11/2023 10:30:00 PM 6.0385 8.5814
2/11/2023 10:45:00 PM 6.0372 8.6911
2/11/2023 11:00:00 PM 6.0348 8.7741
2/11/2023 11:15:00 PM 6.0348 8.6954
2/11/2023 11:30:00 PM 6.0347 8.598
2/11/2023 11:45:00 PM 6.034 8.6
2/12/2023 12:00:00 AM 6.0345 8.599
2/12/2023 12:15:00 AM 6.0324 8.6153
2/12/2023 12:30:00 AM 6.031 8.6533
2/12/2023 12:45:00 AM 6.0299 8.5438
2/12/2023 1:00:00 AM 6.028 8.9539
2/12/2023 1:15:00 AM 6.0258 9.2653
2/12/2023 1:30:00 AM 6.0249 8.9554
2/12/2023 1:45:00 AM 6.024 8.8157
2/12/2023 2:00:00 AM 6.0226 8.8092
2/12/2023 2:15:00 AM 6.021 8.6494
2/12/2023 2:30:00 AM 6.0204 8.7727
2/12/2023 2:45:00 AM 6.0214 8.9
2/12/2023 3:00:00 AM 6.0193 8.908
2/12/2023 3:15:00 AM 6.0183 8.9309
2/12/2023 3:30:00 AM 6.0165 9.0138
2/12/2023 3:45:00 AM 6.0156 8.9794
2/12/2023 4:00:00 AM 6.0157 8.9999
2/12/2023 4:15:00 AM 6.0139 9.0376
2/12/2023 4:30:00 AM 6.0146 9.1651
2/12/2023 4:45:00 AM 6.0149 9.1076
2/12/2023 5:00:00 AM 6.0144 9.0996
2/12/2023 5:15:00 AM 6.0115 9.1673
2/12/2023 5:30:00 AM 6.0112 9.3286
2/12/2023 5:45:00 AM 6.0102 9.3
2/12/2023 6:00:00 AM 6.0111 9.5055
2/12/2023 6:15:00 AM 6.0106 9.3089
2/12/2023 6:30:00 AM 6.008 9.295
2/12/2023 6:45:00 AM 6.0065 26.67
2/12/2023 7:00:00 AM 6.0105 12.3849
2/12/2023 7:15:00 AM 6.0111 9.8832
2/12/2023 7:30:00 AM 6.0114 9.7513
2/12/2023 7:45:00 AM 6.011 9.4834
2/12/2023 8:00:00 AM 6.0115 9.5758
2/12/2023 8:15:00 AM 6.0102 9.2555
2/12/2023 8:30:00 AM 6.0241 82.1082
2/12/2023 8:45:00 AM 6.0354 9.8001
2/12/2023 9:00:00 AM 6.0418 8.8321
2/12/2023 9:15:00 AM 6.0635 8.5759
2/12/2023 9:30:00 AM 6.0898 8.5553
2/12/2023 9:45:00 AM 6.1151 8.6216
2/12/2023 10:00:00 AM 6.1088 8.4522
2/12/2023 10:15:00 AM 6.108 8.4355
2/12/2023 10:30:00 AM 6.1282 8.4499
2/12/2023 10:45:00 AM 6.117 8.4013
2/12/2023 11:00:00 AM 6.064 8.5726
2/12/2023 11:15:00 AM 6.0373 8.8238
2/12/2023 11:30:00 AM 6.0245 8.9057
2/12/2023 11:45:00 AM 6.02 8.8
2/12/2023 12:00:00 PM 6.0572 8.6676
2/12/2023 12:15:00 PM 6.0999 8.7913
2/12/2023 12:30:00 PM 6.1199 8.5216
2/12/2023 12:45:00 PM 6.1391 8.4923
2/12/2023 1:00:00 PM 6.1237 8.4313
2/12/2023 1:15:00 PM 6.0552 8.3275
2/12/2023 1:30:00 PM 6.0331 8.7605
2/12/2023 1:45:00 PM 6.0211 8.8685
2/12/2023 2:00:00 PM 6.0197 8.8912
2/12/2023 2:15:00 PM 6.0336 8.8118
2/12/2023 2:30:00 PM 6.0638 8.7709
2/12/2023 2:45:00 PM 6.0939 8.5506
2/12/2023 3:00:00 PM 6.0531 8.966
2/12/2023 3:15:00 PM 6.0331 8.7901
2/12/2023 3:30:00 PM 6.0226 8.6678
2/12/2023 3:45:00 PM 6.0163 8.9313
2/12/2023 4:00:00 PM 6.0292 8.833
2/12/2023 4:15:00 PM 6.0697 8.4038
2/12/2023 4:30:00 PM 6.1099 8.3705
2/12/2023 4:45:00 PM 6.091 8.2754
2/12/2023 5:00:00 PM 6.0439 8.3116
2/12/2023 5:15:00 PM 6.026 8.2202
2/12/2023 5:30:00 PM 6.0167 8.3886
2/12/2023 5:45:00 PM 6.0144 8.4
2/12/2023 6:00:00 PM 6.1151 8.2208
2/12/2023 6:15:00 PM 6.2089 8.0722
2/12/2023 6:30:00 PM 6.1208 8.0948
2/12/2023 6:45:00 PM 6.0508 8.034
2/12/2023 7:00:00 PM 6.0247 8.0912
2/12/2023 7:15:00 PM 6.0122 8.1156
2/12/2023 7:30:00 PM 6.0416 8.1061
2/12/2023 7:45:00 PM 6.107 7.9955
2/12/2023 8:00:00 PM 6.109 7.9555
2/12/2023 8:15:00 PM 6.0355 7.9171
2/12/2023 8:30:00 PM 6.0122 8.0513
2/12/2023 8:45:00 PM 6.006 8.1
2/12/2023 9:00:00 PM 6.0057 8.2428
2/12/2023 9:15:00 PM 6.0319 8.0227
2/12/2023 9:30:00 PM 6.1121 7.9256
2/12/2023 9:45:00 PM 6.1481 7.85
2/12/2023 10:00:00 PM 6.039 7.9784
2/12/2023 10:15:00 PM 6.005 7.8842
2/12/2023 10:30:00 PM 5.9906 7.9586
2/12/2023 10:45:00 PM 5.9935 7.8002
2/12/2023 11:00:00 PM 6.014 7.7504
2/12/2023 11:15:00 PM 6.0548 7.7764
2/12/2023 11:30:00 PM 6.0426 7.8852
2/12/2023 11:45:00 PM 6.0144 7.9
2/13/2023 12:00:00 AM 5.9873 7.9225
2/13/2023 12:15:00 AM 5.9819 7.8864
2/13/2023 12:30:00 AM 5.9897 7.8705
2/13/2023 12:45:00 AM 6.0132 7.7996
2/13/2023 1:00:00 AM 6.0483 7.7926
2/13/2023 1:15:00 AM 6.0152 7.6638
2/13/2023 1:30:00 AM 5.9905 7.7364
2/13/2023 1:45:00 AM 5.9816 7.8452
2/13/2023 2:00:00 AM 5.9797 7.8601
2/13/2023 2:15:00 AM 6.0009 7.7444
2/13/2023 2:30:00 AM 6.0328 7.6594
2/13/2023 2:45:00 AM 6.0522 7.7
2/13/2023 3:00:00 AM 5.9997 7.6844
2/13/2023 3:15:00 AM 5.9844 7.6527
2/13/2023 3:30:00 AM 5.9783 7.6384
2/13/2023 3:45:00 AM 5.9805 7.5433
2/13/2023 4:00:00 AM 6.0014 7.4824
2/13/2023 4:15:00 AM 6.0548 7.3905
2/13/2023 4:30:00 AM 6.0942 7.4041
2/13/2023 4:45:00 AM 6.0287 7.4867
2/13/2023 5:00:00 AM 5.9907 7.4704
2/13/2023 5:15:00 AM 5.9786 7.4433
2/13/2023 5:30:00 AM 5.9787 7.4606
2/13/2023 5:45:00 AM 5.9864 7.5
2/13/2023 6:00:00 AM 6.1418 7.3199
2/13/2023 6:15:00 AM 6.1416 7.2311
2/13/2023 6:30:00 AM 6.1023 7.3277
2/13/2023 6:45:00 AM 6.0173 7.457
2/13/2023 7:00:00 AM 5.9849 7.6751
2/13/2023 7:15:00 AM 5.9742 8.9302
2/13/2023 7:30:00 AM 5.9854 8.64
2/13/2023 7:45:00 AM 6.0242 7.8735
2/13/2023 8:00:00 AM 6.0727 7.9267
2/13/2023 8:15:00 AM 6.106 7.9636
2/13/2023 8:30:00 AM 6.0296 8.2396
2/13/2023 8:45:00 AM 6.0032 8.4
2/13/2023 9:00:00 AM 5.9771 8.0766
2/13/2023 9:15:00 AM 5.9757 8.329
2/13/2023 9:30:00 AM 5.9967 8.1189
2/13/2023 9:45:00 AM 6.0239 7.749
2/13/2023 10:00:00 AM 6.0472 7.7096
2/13/2023 10:15:00 AM 6.0034 7.5636
2/13/2023 10:30:00 AM 5.9778 7.595
2/13/2023 10:45:00 AM 5.9698 7.579
2/13/2023 11:00:00 AM 5.967 7.5573
2/13/2023 11:15:00 AM 5.9687 7.4386
2/13/2023 11:30:00 AM 5.9786 7.3736
2/13/2023 11:45:00 AM 5.992 7.3
2/13/2023 12:00:00 PM 6.0037 7.4351
2/13/2023 12:15:00 PM 5.974 7.7906
2/13/2023 12:30:00 PM 5.9633 8.4514
2/13/2023 12:45:00 PM 5.9572 8.6213
2/13/2023 1:00:00 PM 5.9538 8.3482
2/13/2023 1:15:00 PM 5.9686 8.5541
2/13/2023 1:30:00 PM 6.0966 8.6286
2/13/2023 1:45:00 PM 6.1226 7.7959
2/13/2023 2:00:00 PM 6.01 7.7424
2/13/2023 2:15:00 PM 5.974 7.7518
2/13/2023 2:30:00 PM 5.9598 7.9664
2/13/2023 2:45:00 PM 5.9537 8.2499
2/13/2023 3:00:00 PM 5.9611 8.226
2/13/2023 3:15:00 PM 6.0055 8.283
2/13/2023 3:30:00 PM 6.0215 8.1188
2/13/2023 3:45:00 PM 5.9833 8.004
2/13/2023 4:00:00 PM 5.9702 8.0934
2/13/2023 4:15:00 PM 5.9626 8.1153
2/13/2023 4:30:00 PM 5.9586 8.3129
2/13/2023 4:45:00 PM 5.9601 8.4743
2/13/2023 5:00:00 PM 5.986 8.5682
2/13/2023 5:15:00 PM 6.0401 7.9307
2/13/2023 5:30:00 PM 6.0042 7.672
2/13/2023 5:45:00 PM 5.9864 7.6
2/13/2023 6:00:00 PM 5.9691 7.4887
2/13/2023 6:15:00 PM 5.9629 8.5685
2/13/2023 6:30:00 PM 5.9578 8.0858
2/13/2023 6:45:00 PM 5.9658 7.628
2/13/2023 7:00:00 PM 6.0186 7.5969
2/13/2023 7:15:00 PM 6.0479 7.2932
2/13/2023 7:30:00 PM 5.992 7.5035
2/13/2023 7:45:00 PM 5.9715 8.8347
2/13/2023 8:00:00 PM 5.9606 11.0097
2/13/2023 8:15:00 PM 5.955 12.2524
2/13/2023 8:30:00 PM 5.958 11.5785
2/13/2023 8:45:00 PM 5.9682 11.4
2/13/2023 9:00:00 PM 6.1949 10.8415
2/13/2023 9:15:00 PM 6.0697 10.8446
2/13/2023 9:30:00 PM 6.0044 11.1336
2/13/2023 9:45:00 PM 5.9782 10.5777
2/13/2023 10:00:00 PM 5.9683 10.0915
2/13/2023 10:15:00 PM 5.9641 9.9202
2/13/2023 10:30:00 PM 5.9743 10.265
2/13/2023 10:45:00 PM 5.9885 10.3294
2/13/2023 11:00:00 PM 5.9788 10.2393
2/13/2023 11:15:00 PM 5.9729 14.3902
2/13/2023 11:30:00 PM 5.9676 9.6447
2/13/2023 11:45:00 PM 5.9668 9.6
2/14/2023 12:00:00 AM 5.9646 9.8728
2/14/2023 12:15:00 AM 5.9726 9.467
2/14/2023 12:30:00 AM 5.9743 9.0071
2/14/2023 12:45:00 AM 5.9694 8.6775
2/14/2023 1:00:00 AM 5.9665 8.4659
2/14/2023 1:15:00 AM 5.9642 8.2367
2/14/2023 1:30:00 AM 5.9636 8.2225
2/14/2023 1:45:00 AM 5.9739 8.2143
2/14/2023 2:00:00 AM 5.9852 8.0373
2/14/2023 2:15:00 AM 5.9779 7.9783
2/14/2023 2:30:00 AM 5.9721 8.1047
2/14/2023 2:45:00 AM 5.9738 8
2/14/2023 3:00:00 AM 5.9671 7.692
2/14/2023 3:15:00 AM 5.9696 7.5451
2/14/2023 3:30:00 AM 5.9855 7.7002
2/14/2023 3:45:00 AM 5.986 7.6391
2/14/2023 4:00:00 AM 5.9757 7.3506
2/14/2023 4:15:00 AM 5.9719 7.3391
2/14/2023 4:30:00 AM 5.9689 7.2949
2/14/2023 4:45:00 AM 5.9682 7.2668
2/14/2023 5:00:00 AM 5.983 7.3062
2/14/2023 5:15:00 AM 6.0205 7.3374
2/14/2023 5:30:00 AM 5.9973 7.9329
2/14/2023 5:45:00 AM 5.9878 7.6
2/14/2023 6:00:00 AM 5.9734 7.7992
2/14/2023 6:15:00 AM 5.9715 7.8163
2/14/2023 6:30:00 AM 5.9718 7.5788
2/14/2023 6:45:00 AM 5.9813 7.5684
2/14/2023 7:00:00 AM 5.9944 8.2572
2/14/2023 7:15:00 AM 5.9843 8.0424
2/14/2023 7:30:00 AM 5.9798 7.7188
2/14/2023 7:45:00 AM 5.9772 8.0036
2/14/2023 8:00:00 AM 5.977 8.0738
2/14/2023 8:15:00 AM 5.988 7.8713
2/14/2023 8:30:00 AM 6.0233 8.0263
2/14/2023 8:45:00 AM 6.0242 8
2/14/2023 9:00:00 AM 5.9929 8.6816
2/14/2023 9:15:00 AM 5.9862 8.2262
2/14/2023 9:30:00 AM 5.9816 7.9815
2/14/2023 9:45:00 AM 5.9834 7.6473
2/14/2023 10:00:00 AM 5.994 7.7002
2/14/2023 10:15:00 AM 6.0127 7.5535
2/14/2023 10:30:00 AM 5.9986 7.5052
2/14/2023 10:45:00 AM 5.9904 7.9754
2/14/2023 11:00:00 AM 5.987 8.8308
2/14/2023 11:15:00 AM 5.9854 9.0172
2/14/2023 11:30:00 AM 5.9902 8.4401
2/14/2023 11:45:00 AM 6.0032 8.5
2/14/2023 12:00:00 PM 6.0578 7.9469
2/14/2023 12:15:00 PM 6.0134 7.6124
2/14/2023 12:30:00 PM 5.9971 7.4937
2/14/2023 12:45:00 PM 5.9896 7.4533
2/14/2023 1:00:00 PM 5.9861 7.4174
2/14/2023 1:15:00 PM 5.9838 7.6275
2/14/2023 1:30:00 PM 5.9917 7.4136
2/14/2023 1:45:00 PM 6.0189 7.3445
2/14/2023 2:00:00 PM 6.0063 7.5255
2/14/2023 2:15:00 PM 5.995 7.2544
2/14/2023 2:30:00 PM 5.9894 7.256
2/14/2023 2:45:00 PM 5.9867 7.1317
2/14/2023 3:00:00 PM 5.9867 7.0901
2/14/2023 3:15:00 PM 5.9868 7.3265
2/14/2023 3:30:00 PM 6.0088 7.1237
2/14/2023 3:45:00 PM 6.1142 6.6156
2/14/2023 4:00:00 PM 6.0587 6.4262
2/14/2023 4:15:00 PM 6.0222 6.409
2/14/2023 4:30:00 PM 6.0077 7.1621
2/14/2023 4:45:00 PM 6.0004 7.1715
2/14/2023 5:00:00 PM 5.9957 6.9631
2/14/2023 5:15:00 PM 5.9918 6.5747
2/14/2023 5:30:00 PM 5.9933 6.4284
2/14/2023 5:45:00 PM 5.999 6.4
2/14/2023 6:00:00 PM 6.0676 6.0587
2/14/2023 6:15:00 PM 6.0225 6.049
2/14/2023 6:30:00 PM 6.0073 6.0358
2/14/2023 6:45:00 PM 5.9979 6.1227
2/14/2023 7:00:00 PM 5.9927 6.1131
2/14/2023 7:15:00 PM 5.9888 6.0872
2/14/2023 7:30:00 PM 5.9965 6.0104
2/14/2023 7:45:00 PM 6.0482 5.8933
2/14/2023 8:00:00 PM 6.0199 6.0971
2/14/2023 8:15:00 PM 6.0029 6.147
2/14/2023 8:30:00 PM 5.9941 6.1185
2/14/2023 8:45:00 PM 5.9906 6.0999
2/14/2023 9:00:00 PM 5.9863 6.2354
2/14/2023 9:15:00 PM 5.9921 7.1398
2/14/2023 9:30:00 PM 6.0419 8.9404
2/14/2023 9:45:00 PM 6.0137 8.6284
2/14/2023 10:00:00 PM 5.9965 8.2822
2/14/2023 10:15:00 PM 6.0093 8.0453
2/14/2023 10:30:00 PM 6.153 7.6419
2/14/2023 10:45:00 PM 6.062 7.3194
2/14/2023 11:00:00 PM 6.0133 7.0875
2/14/2023 11:15:00 PM 6.0129 8.6961
2/14/2023 11:30:00 PM 6.0983 8.715
2/14/2023 11:45:00 PM 6.0648 8
2/15/2023 12:00:00 AM 6.0057 7.2272
2/15/2023 12:15:00 AM 6.0083 6.9696
2/15/2023 12:30:00 AM 6.1207 6.85
2/15/2023 12:45:00 AM 6.0416 6.7523
2/15/2023 1:00:00 AM 6.0051 6.7157
2/15/2023 1:15:00 AM 6.0011 6.5882
2/15/2023 1:30:00 AM 6.0901 6.657
2/15/2023 1:45:00 AM 6.0325 8.9487
2/15/2023 2:00:00 AM 5.9987 8.1377
2/15/2023 2:15:00 AM 5.9888 8.3346
2/15/2023 2:30:00 AM 6.0403 9.0769
2/15/2023 2:45:00 AM 6.0508 9
2/15/2023 3:00:00 AM 5.9919 10.5066
2/15/2023 3:15:00 AM 5.9829 11.1185
2/15/2023 3:30:00 AM 6.0096 11.8749
2/15/2023 3:45:00 AM 6.0401 11.275
2/15/2023 4:00:00 AM 5.9957 12.4808
2/15/2023 4:15:00 AM 5.9805 12.7711
2/15/2023 4:30:00 AM 5.9847 12.0194
2/15/2023 4:45:00 AM 6.0862 9.6856
2/15/2023 5:00:00 AM 6.0264 8.6
2/15/2023 5:15:00 AM 5.9921 7.9761
2/15/2023 5:30:00 AM 5.9776 7.6207
2/15/2023 5:45:00 AM 5.9794 7.8
2/15/2023 6:00:00 AM 6.0605 9.1697
2/15/2023 6:15:00 AM 6.0016 8.1693
2/15/2023 6:30:00 AM 5.98 7.7504
2/15/2023 6:45:00 AM 5.9753 7.3612
2/15/2023 7:00:00 AM 6.0938 7.3507
2/15/2023 7:15:00 AM 6.0765 8.0163
2/15/2023 7:30:00 AM 6.0053 7.4064
2/15/2023 7:45:00 AM 5.9764 7.2401
2/15/2023 8:00:00 AM 5.9751 6.9597
2/15/2023 8:15:00 AM 6.0448 6.714
2/15/2023 8:30:00 AM 6.001 6.4893
2/15/2023 8:45:00 AM 5.9878 6.5
2/15/2023 9:00:00 AM 5.9685 6.2492
2/15/2023 9:15:00 AM 5.9911 6.0653
2/15/2023 9:30:00 AM 6.073 5.9128
2/15/2023 9:45:00 AM 6.0013 6.0135
2/15/2023 10:00:00 AM 5.9763 6.0664
2/15/2023 10:15:00 AM 5.9664 6.1396
2/15/2023 10:30:00 AM 5.972 6.193
2/15/2023 10:45:00 AM 6.0333 6.0692
2/15/2023 11:00:00 AM 5.9916 6.0611
2/15/2023 11:15:00 AM 5.9733 6.9375
2/15/2023 11:30:00 AM 5.964 8.9575
2/15/2023 11:45:00 AM 5.964 8.8
2/15/2023 12:00:00 PM 6.0131 7.2547
2/15/2023 12:15:00 PM 5.9834 6.9251
2/15/2023 12:30:00 PM 5.9689 6.7389
2/15/2023 12:45:00 PM 5.9612 7.1813
2/15/2023 1:00:00 PM 5.9642 7.404
2/15/2023 1:15:00 PM 6.0129 7.7197
2/15/2023 1:30:00 PM 5.9818 7.9416
2/15/2023 1:45:00 PM 5.9674 7.4378
2/15/2023 2:00:00 PM 5.9592 9.3904
2/15/2023 2:15:00 PM 5.9538 14.2218
2/15/2023 2:30:00 PM 5.9765 10.4479
2/15/2023 2:45:00 PM 5.9673 12.2008
2/15/2023 3:00:00 PM 5.9513 12.7756
2/15/2023 3:15:00 PM 5.9442 16.5376
2/15/2023 3:30:00 PM 5.9387 16.5861
2/15/2023 3:45:00 PM 5.9557 17.1749
2/15/2023 4:00:00 PM 5.9554 19.1005
2/15/2023 4:15:00 PM 5.9457 14.0481
2/15/2023 4:30:00 PM 5.9431 9.7664
2/15/2023 4:45:00 PM 5.9428 13.7871
2/15/2023 5:00:00 PM 5.9493 15.9751
2/15/2023 5:15:00 PM 5.9834 12.9477
2/15/2023 5:30:00 PM 5.9697 10.6337
2/15/2023 5:45:00 PM 5.9696 9.6
2/15/2023 6:00:00 PM 5.9565 8.1842
2/15/2023 6:15:00 PM 5.9533 7.4818
2/15/2023 6:30:00 PM 5.9533 7.0872
2/15/2023 6:45:00 PM 5.9684 6.6902
2/15/2023 7:00:00 PM 5.9704 6.4355
2/15/2023 7:15:00 PM 5.9622 7.0088
2/15/2023 7:30:00 PM 5.956 7.2692
2/15/2023 7:45:00 PM 5.9525 6.9548
2/15/2023 8:00:00 PM 5.9486 6.5495
2/15/2023 8:15:00 PM 5.9449 7.3946
2/15/2023 8:30:00 PM 5.9568 9.0293
2/15/2023 8:45:00 PM 5.9738 9.4
2/15/2023 9:00:00 PM 5.9541 8.7258
2/15/2023 9:15:00 PM 5.9475 7.614
2/15/2023 9:30:00 PM 5.9435 7.3179
2/15/2023 9:45:00 PM 5.9426 7.0675
2/15/2023 10:00:00 PM 5.9384 8.2996
2/15/2023 10:15:00 PM 5.9544 8.1109
2/15/2023 10:30:00 PM 5.9651 8.2812
2/15/2023 10:45:00 PM 5.9532 8.788
2/15/2023 11:00:00 PM 5.9468 8.4537
2/15/2023 11:15:00 PM 5.9424 8.606
2/15/2023 11:30:00 PM 5.9386 11.6908
2/15/2023 11:45:00 PM 5.9388 11.4
2/16/2023 12:00:00 AM 5.9644 8.3077
2/16/2023 12:15:00 AM 5.9542 7.859
2/16/2023 12:30:00 AM 5.9453 8.0093
2/16/2023 12:45:00 AM 5.9401 7.6263
2/16/2023 1:00:00 AM 5.938 7.7458
2/16/2023 1:15:00 AM 5.9351 7.5654
2/16/2023 1:30:00 AM 5.9557 7.6962
2/16/2023 1:45:00 AM 5.953 7.6654
2/16/2023 2:00:00 AM 5.9435 7.5228
2/16/2023 2:15:00 AM 5.9382 7.4256
2/16/2023 2:30:00 AM 5.9338 7.4493
2/16/2023 2:45:00 AM 5.9304 7.4
2/16/2023 3:00:00 AM 5.9363 7.2124
2/16/2023 3:15:00 AM 5.9575 7.0317
2/16/2023 3:30:00 AM 5.9479 7.0977
2/16/2023 3:45:00 AM 5.9421 6.9477
2/16/2023 4:00:00 AM 5.938 7.0898
2/16/2023 4:15:00 AM 5.9358 7.1173
2/16/2023 4:30:00 AM 5.9451 7.1943
2/16/2023 4:45:00 AM 5.9715 7.2542
2/16/2023 5:00:00 AM 5.9521 7.9393
2/16/2023 5:15:00 AM 5.9436 7.6097
2/16/2023 5:30:00 AM 5.9387 7.5016
2/16/2023 5:45:00 AM 5.9402 7.9
2/16/2023 6:00:00 AM 5.9493 9.6429
2/16/2023 6:15:00 AM 5.954 10.9832
2/16/2023 6:30:00 AM 5.9439 13.3855
2/16/2023 6:45:00 AM 5.9386 12.3132
2/16/2023 7:00:00 AM 5.9336 10.8585
2/16/2023 7:15:00 AM 5.9388 9.5645
2/16/2023 7:30:00 AM 5.9656 9.194
2/16/2023 7:45:00 AM 5.9517 8.6157
2/16/2023 8:00:00 AM 5.9451 8.392
2/16/2023 8:15:00 AM 5.9397 8.1277
2/16/2023 8:30:00 AM 5.9374 8.0471
2/16/2023 8:45:00 AM 5.9402 7.9
2/16/2023 9:00:00 AM 5.9616 7.5832
2/16/2023 9:15:00 AM 5.9481 7.3879
2/16/2023 9:30:00 AM 5.9428 7.589
2/16/2023 9:45:00 AM 5.9399 7.9273
2/16/2023 10:00:00 AM 5.9393 8.4939
2/16/2023 10:15:00 AM 5.9556 8.1905
2/16/2023 10:30:00 AM 5.9561 8.1984
2/16/2023 10:45:00 AM 5.9484 8.028
2/16/2023 11:00:00 AM 5.9447 8.205
2/16/2023 11:15:00 AM 5.943 7.8155
2/16/2023 11:30:00 AM 5.943 7.6334
2/16/2023 11:45:00 AM 5.9444 7.5
2/16/2023 12:00:00 PM 5.9645 7.1431
2/16/2023 12:15:00 PM 5.9556 7.0946
2/16/2023 12:30:00 PM 5.9517 7.1316
2/16/2023 12:45:00 PM 5.9485 7.0201
2/16/2023 1:00:00 PM 5.9482 7.0917
2/16/2023 1:15:00 PM 5.955 6.8888
2/16/2023 1:30:00 PM 5.9787 6.8323
2/16/2023 1:45:00 PM 5.9643 6.746
2/16/2023 2:00:00 PM 5.9588 6.7857
2/16/2023 2:15:00 PM 5.9565 6.5785
2/16/2023 2:30:00 PM 5.953 6.5791
2/16/2023 2:45:00 PM 5.9532 6.56
2/16/2023 3:00:00 PM 5.9574 6.7828
2/16/2023 3:15:00 PM 5.9738 6.7351
2/16/2023 3:30:00 PM 5.9679 6.6357
2/16/2023 3:45:00 PM 5.9628 6.5852
2/16/2023 4:00:00 PM 5.9619 6.7125
2/16/2023 4:15:00 PM 5.96 6.6263
2/16/2023 4:30:00 PM 5.9579 6.7413
2/16/2023 4:45:00 PM 5.9582 6.612
2/16/2023 5:00:00 PM 5.9722 6.4769
2/16/2023 5:15:00 PM 5.975 6.5094
2/16/2023 5:30:00 PM 5.9678 6.6921
2/16/2023 5:45:00 PM 5.964 6.8
2/16/2023 6:00:00 PM 5.9579 6.7217
2/16/2023 6:15:00 PM 5.9541 6.6039
2/16/2023 6:30:00 PM 5.9533 6.6559
2/16/2023 6:45:00 PM 5.9488 6.5505
2/16/2023 7:00:00 PM 5.9481 6.8424
2/16/2023 7:15:00 PM 5.9437 7.1131
2/16/2023 7:30:00 PM 5.9433 6.9956
2/16/2023 7:45:00 PM 5.9411 6.9187
2/16/2023 8:00:00 PM 5.9384 7.3263
2/16/2023 8:15:00 PM 5.9381 7.9039
2/16/2023 8:30:00 PM 5.9345 7.2467
2/16/2023 8:45:00 PM 5.9346 7.2
2/16/2023 9:00:00 PM 5.9326 7.0095
2/16/2023 9:15:00 PM 5.9291 6.9379
2/16/2023 9:30:00 PM 5.929 7.0371
2/16/2023 9:45:00 PM 5.9287 6.856
2/16/2023 10:00:00 PM 5.9272 7.0196
2/16/2023 10:15:00 PM 5.9256 7.0989
2/16/2023 10:30:00 PM 5.9255 7.3935
2/16/2023 10:45:00 PM 5.9239 7.1877
2/16/2023 11:00:00 PM 5.9241 7.2189
2/16/2023 11:15:00 PM 5.9238 7.489
2/16/2023 11:30:00 PM 5.9232 7.6523
2/16/2023 11:45:00 PM 5.9234 7.1
2/17/2023 12:00:00 AM 5.9206 6.9371
2/17/2023 12:15:00 AM 5.9188 6.7343
2/17/2023 12:30:00 AM 5.9187 6.7309
2/17/2023 12:45:00 AM 5.9188 6.7026
2/17/2023 1:00:00 AM 5.9189 6.803
2/17/2023 1:15:00 AM 5.9186 6.7197
2/17/2023 1:30:00 AM 5.9187 6.8314
2/17/2023 1:45:00 AM 5.9189 6.6713
2/17/2023 2:00:00 AM 5.9189 6.8686
2/17/2023 2:15:00 AM 5.9187 6.8065
2/17/2023 2:30:00 AM 5.9188 7.0525
2/17/2023 2:45:00 AM 5.9206 7
2/17/2023 3:00:00 AM 5.9191 6.8356
2/17/2023 3:15:00 AM 5.9194 6.8304
2/17/2023 3:30:00 AM 5.9192 8.46
2/17/2023 3:45:00 AM 5.9193 9.1299
2/17/2023 4:00:00 AM 5.9201 9.7769
2/17/2023 4:15:00 AM 5.9223 8.72
2/17/2023 4:30:00 AM 5.9236 8.5625
2/17/2023 4:45:00 AM 5.9238 8.0876
2/17/2023 5:00:00 AM 5.923 8.4205
2/17/2023 5:15:00 AM 5.9221 8.4697
2/17/2023 5:30:00 AM 5.9213 8.3607
2/17/2023 5:45:00 AM 5.9164 9
2/17/2023 6:00:00 AM 5.9193 8.5151
2/17/2023 6:15:00 AM 5.9189 8.4101
2/17/2023 6:30:00 AM 5.9189 10.3054
2/17/2023 6:45:00 AM 5.9158 11.8212
2/17/2023 7:00:00 AM 5.9145 10.4087
2/17/2023 7:15:00 AM 5.9115 9.2641
2/17/2023 7:30:00 AM 5.9091 9.2948
2/17/2023 7:45:00 AM 5.9091 11.5599
2/17/2023 8:00:00 AM 5.9069 13.7645
2/17/2023 8:15:00 AM 5.9026 9.0051
2/17/2023 8:30:00 AM 5.8991 16.7503
2/17/2023 8:45:00 AM 5.8996 16.1
2/17/2023 9:00:00 AM 5.8996 12.6391
2/17/2023 9:15:00 AM 5.9032 10.7593
2/17/2023 9:30:00 AM 5.9042 9.9289
2/17/2023 9:45:00 AM 5.9039 9.5492
2/17/2023 10:00:00 AM 5.9033 9.698
2/17/2023 10:15:00 AM 5.9084 9.7168
2/17/2023 10:30:00 AM 5.9089 10.0829
2/17/2023 10:45:00 AM 5.9127 10.1313
2/17/2023 11:00:00 AM 5.9133 10.4506
2/17/2023 11:15:00 AM 5.9175 10.3095
2/17/2023 11:30:00 AM 5.9188 10.0039
2/17/2023 11:45:00 AM 5.9206 9.7001
2/17/2023 12:00:00 PM 5.9194 12.4527
2/17/2023 12:15:00 PM 5.9236 9.5633
2/17/2023 12:30:00 PM 5.9279 9.8516
2/17/2023 12:45:00 PM 5.9311 9.8204
2/17/2023 1:00:00 PM 5.9352 10.2058
2/17/2023 1:15:00 PM 5.9386 10.3893
2/17/2023 1:30:00 PM 5.9432 11.833
2/17/2023 1:45:00 PM 5.9464 12.4305
2/17/2023 2:00:00 PM 5.9491 14.4913
2/17/2023 2:15:00 PM 5.9537 15.2069
2/17/2023 2:30:00 PM 5.958 15.8041
2/17/2023 2:45:00 PM 5.9623 16.0714
2/17/2023 3:00:00 PM 5.9669 16.7632
2/17/2023 3:15:00 PM 5.9722 16.6082
2/17/2023 3:30:00 PM 5.9769 16.016
2/17/2023 3:45:00 PM 5.9816 15.0231
2/17/2023 4:00:00 PM 5.982 15.0274
2/17/2023 4:15:00 PM 5.983 15.0102
2/17/2023 4:30:00 PM 5.9866 14.6799
2/17/2023 4:45:00 PM 5.9868 13.2148
2/17/2023 5:00:00 PM 5.987 12.6437
2/17/2023 5:15:00 PM 5.9934 12.3618
2/17/2023 5:30:00 PM 6.0901 12.416
2/17/2023 5:45:00 PM 6.076 11.9
2/17/2023 6:00:00 PM 6.0156 11.7869
2/17/2023 6:15:00 PM 6.0052 11.4639
2/17/2023 6:30:00 PM 5.9983 11.4129
2/17/2023 6:45:00 PM 5.9931 11.3307
2/17/2023 7:00:00 PM 5.9885 12.3248
2/17/2023 7:15:00 PM 5.9851 12.4502
2/17/2023 7:30:00 PM 5.9916 12.8415
2/17/2023 7:45:00 PM 6.0602 12.6386
2/17/2023 8:00:00 PM 6.0191 12.3338
2/17/2023 8:15:00 PM 5.9981 11.7088
2/17/2023 8:30:00 PM 5.9891 11.5497
2/17/2023 8:45:00 PM 5.9934 11.3
2/17/2023 9:00:00 PM 6.0694 11.3003
2/17/2023 9:15:00 PM 6.0135 10.8864
2/17/2023 9:30:00 PM 5.9947 10.8082
2/17/2023 9:45:00 PM 5.986 10.6595
2/17/2023 10:00:00 PM 6.0101 10.97
2/17/2023 10:15:00 PM 6.0887 12.0535
2/17/2023 10:30:00 PM 6.0272 14.0227
2/17/2023 10:45:00 PM 5.9999 13.9644
2/17/2023 11:00:00 PM 5.9866 13.6788
2/17/2023 11:15:00 PM 6.0227 13.1481
2/17/2023 11:30:00 PM 6.0465 13.906
2/17/2023 11:45:00 PM 6.0228 14.4
2/18/2023 12:00:00 AM 5.9929 14.5965
2/18/2023 12:15:00 AM 5.9934 14.1537
2/18/2023 12:30:00 AM 6.1775 14.838
2/18/2023 12:45:00 AM 6.1417 14.4721
2/18/2023 1:00:00 AM 6.051 13.9251
2/18/2023 1:15:00 AM 6.0129 13.304
2/18/2023 1:30:00 AM 6.0104 12.8345
2/18/2023 1:45:00 AM 6.1759 12.1315
2/18/2023 2:00:00 AM 6.2407 11.9984
2/18/2023 2:15:00 AM 6.1036 11.5237
2/18/2023 2:30:00 AM 6.0548 11.3672
2/18/2023 2:45:00 AM 6.0452 11.1
2/18/2023 3:00:00 AM 6.1638 10.6116
2/18/2023 3:15:00 AM 6.4541 10.3701
2/18/2023 3:30:00 AM 6.2847 10.4112
2/18/2023 3:45:00 AM 6.1874 10.0678
2/18/2023 4:00:00 AM 6.111 10.0814
2/18/2023 4:15:00 AM 6.1343 9.7175
2/18/2023 4:30:00 AM 6.3718 9.6246
2/18/2023 4:45:00 AM 6.2777 9.4621
2/18/2023 5:00:00 AM 6.1667 10.8487
2/18/2023 5:15:00 AM 6.0962 9.8811
2/18/2023 5:30:00 AM 6.1016 11.8075
2/18/2023 5:45:00 AM 6.1656 12.5
2/18/2023 6:00:00 AM 6.2871 13.0281
2/18/2023 6:15:00 AM 6.1448 12.6628
2/18/2023 6:30:00 AM 6.0907 11.1388
2/18/2023 6:45:00 AM 6.0645 10.6501
2/18/2023 7:00:00 AM 6.0829 10.355
2/18/2023 7:15:00 AM 6.2541 9.7888
2/18/2023 7:30:00 AM 6.24 9.7192
2/18/2023 7:45:00 AM 6.1033 9.0536
2/18/2023 8:00:00 AM 6.0629 9.1576
2/18/2023 8:15:00 AM 6.0474 8.9191
2/18/2023 8:30:00 AM 6.051 8.4253
2/18/2023 8:45:00 AM 6.0774 8.4
2/18/2023 9:00:00 AM 6.235 8.3149
2/18/2023 9:15:00 AM 6.099 7.9831
2/18/2023 9:30:00 AM 6.0571 7.9647
2/18/2023 9:45:00 AM 6.0417 7.7131
2/18/2023 10:00:00 AM 6.0817 7.7216
2/18/2023 10:15:00 AM 6.3145 7.513
2/18/2023 10:30:00 AM 6.2498 7.7279
2/18/2023 10:45:00 AM 6.0922 8.037
2/18/2023 11:00:00 AM 6.0517 8.0938
2/18/2023 11:15:00 AM 6.0378 7.9274
2/18/2023 11:30:00 AM 6.0469 7.9898
2/18/2023 11:45:00 AM 6.0718 7.9
2/18/2023 12:00:00 PM 6.1239 7.9857
2/18/2023 12:15:00 PM 6.0621 7.6354
2/18/2023 12:30:00 PM 6.0439 7.5831
2/18/2023 12:45:00 PM 6.0383 7.4664
2/18/2023 1:00:00 PM 6.0422 7.3864
2/18/2023 1:15:00 PM 6.0825 7.1102
2/18/2023 1:30:00 PM 6.1161 7.2003
2/18/2023 1:45:00 PM 6.0632 7.1282
2/18/2023 2:00:00 PM 6.0485 7.1045
2/18/2023 2:15:00 PM 6.0434 7.0259
2/18/2023 2:30:00 PM 6.0413 7.1483
2/18/2023 2:45:00 PM 6.0681 6.8219
2/18/2023 3:00:00 PM 6.2207 6.9418
2/18/2023 3:15:00 PM 6.1331 7.0152
2/18/2023 3:30:00 PM 6.079 6.9329
2/18/2023 3:45:00 PM 6.0627 6.7733
2/18/2023 4:00:00 PM 6.0563 6.8974
2/18/2023 4:15:00 PM 6.0623 6.8054
2/18/2023 4:30:00 PM 6.1668 6.8064
2/18/2023 4:45:00 PM 6.1605 6.845
2/18/2023 5:00:00 PM 6.0995 6.8914
2/18/2023 5:15:00 PM 6.0789 6.6556
2/18/2023 5:30:00 PM 6.0678 6.7612
2/18/2023 5:45:00 PM 6.0606 6.7
2/18/2023 6:00:00 PM 6.1098 6.5096
2/18/2023 6:15:00 PM 6.1386 6.487
2/18/2023 6:30:00 PM 6.0877 6.8111
2/18/2023 6:45:00 PM 6.0709 6.9244
2/18/2023 7:00:00 PM 6.0623 6.8099
2/18/2023 7:15:00 PM 6.0612 7.2432
2/18/2023 7:30:00 PM 6.1193 7.9475
2/18/2023 7:45:00 PM 6.0989 7.8642
2/18/2023 8:00:00 PM 6.0685 7.9408
2/18/2023 8:15:00 PM 6.0555 8.0505
2/18/2023 8:30:00 PM 6.0514 7.9445
2/18/2023 8:45:00 PM 6.055 7.6
2/18/2023 9:00:00 PM 6.1989 7.5224
2/18/2023 9:15:00 PM 6.0923 7.2712
2/18/2023 9:30:00 PM 6.0605 7.1329
2/18/2023 9:45:00 PM 6.0469 6.8903
2/18/2023 10:00:00 PM 6.0473 6.9198
2/18/2023 10:15:00 PM 6.1143 6.6962
2/18/2023 10:30:00 PM 6.0993 7.1772
2/18/2023 10:45:00 PM 6.0571 7.0859
2/18/2023 11:00:00 PM 6.0422 7.0235
2/18/2023 11:15:00 PM 6.0383 6.9637
2/18/2023 11:30:00 PM 6.0432 7.0717
2/18/2023 11:45:00 PM 6.0578 6.9
2/19/2023 12:00:00 AM 6.0917 7.1532
2/19/2023 12:15:00 AM 6.0504 6.9925
2/19/2023 12:30:00 AM 6.0375 7.0613
2/19/2023 12:45:00 AM 6.0345 7.1719
2/19/2023 1:00:00 AM 6.0548 7.3799
2/19/2023 1:15:00 AM 6.1445 7.3228
2/19/2023 1:30:00 AM 6.0678 7.3278
2/19/2023 1:45:00 AM 6.0407 7.0795
2/19/2023 2:00:00 AM 6.0319 7.2398
2/19/2023 2:15:00 AM 6.0331 7.1739
2/19/2023 2:30:00 AM 6.1222 7.2181
2/19/2023 2:45:00 AM 6.2664 7.1999
2/19/2023 3:00:00 AM 6.0465 8.0158
2/19/2023 3:15:00 AM 6.0268 7.5552
2/19/2023 3:30:00 AM 6.0226 7.5423
2/19/2023 3:45:00 AM 6.0332 7.2785
2/19/2023 4:00:00 AM 6.186 7.2565
2/19/2023 4:15:00 AM 6.1315 7.3275
2/19/2023 4:30:00 AM 6.0473 7.4195
2/19/2023 4:45:00 AM 6.027 7.7279
2/19/2023 5:00:00 AM 6.0212 8.0588
2/19/2023 5:15:00 AM 6.0539 7.6462
2/19/2023 5:30:00 AM 6.2091 7.9643
2/19/2023 5:45:00 AM 6.132 7.8
2/19/2023 6:00:00 AM 6.0314 7.672
2/19/2023 6:15:00 AM 6.0208 7.2121
2/19/2023 6:30:00 AM 6.022 7.5443
2/19/2023 6:45:00 AM 6.1276 6.9869
2/19/2023 7:00:00 AM 6.1614 7.7183
2/19/2023 7:15:00 AM 6.0456 7.8943
2/19/2023 7:30:00 AM 6.0194 7.4688
2/19/2023 7:45:00 AM 6.0151 7.1319
2/19/2023 8:00:00 AM 6.0237 7.3585
2/19/2023 8:15:00 AM 6.1898 7.5909
2/19/2023 8:30:00 AM 6.1419 7.5069
2/19/2023 8:45:00 AM 6.0676 7.6
2/19/2023 9:00:00 AM 6.0132 7.8402
2/19/2023 9:15:00 AM 6.0066 7.7847
2/19/2023 9:30:00 AM 6.0165 7.7817
2/19/2023 9:45:00 AM 6.1747 7.2745
2/19/2023 10:00:00 AM 6.1027 7.6782
2/19/2023 10:15:00 AM 6.0291 7.576
2/19/2023 10:30:00 AM 6.0098 7.3567
2/19/2023 10:45:00 AM 6.0085 6.8179
2/19/2023 11:00:00 AM 6.1049 6.9904
2/19/2023 11:15:00 AM 6.1192 7.2362
2/19/2023 11:30:00 AM 6.0347 7.3424
2/19/2023 11:45:00 AM 6.0228 7.3
2/19/2023 12:00:00 PM 6.0066 7.3177
2/19/2023 12:15:00 PM 6.0257 7.6318
2/19/2023 12:30:00 PM 6.1772 7.5218
2/19/2023 12:45:00 PM 6.0688 6.9189
2/19/2023 1:00:00 PM 6.0225 7.0628
2/19/2023 1:15:00 PM 6.0113 6.7065
2/19/2023 1:30:00 PM 6.01 6.6264
2/19/2023 1:45:00 PM 6.0991 6.317
2/19/2023 2:00:00 PM 6.1037 6.4982
2/19/2023 2:15:00 PM 6.0387 6.1852
2/19/2023 2:30:00 PM 6.022 6.3069
2/19/2023 2:45:00 PM 6.0165 6.2678
2/19/2023 3:00:00 PM 6.0253 6.2056
2/19/2023 3:15:00 PM 6.1525 6.2644
2/19/2023 3:30:00 PM 6.0889 6.7514
2/19/2023 3:45:00 PM 6.0459 6.3876
2/19/2023 4:00:00 PM 6.0322 6.677
2/19/2023 4:15:00 PM 6.0279 6.9813
2/19/2023 4:30:00 PM 6.0532 6.8492
2/19/2023 4:45:00 PM 6.1499 6.6925
2/19/2023 5:00:00 PM 6.0719 6.7216
2/19/2023 5:15:00 PM 6.0482 6.7712
2/19/2023 5:30:00 PM 6.0391 6.9001
2/19/2023 5:45:00 PM 6.034 6.7999
2/19/2023 6:00:00 PM 6.0491 6.7634
2/19/2023 6:15:00 PM 6.1346 6.6251
2/19/2023 6:30:00 PM 6.0747 6.7083
2/19/2023 6:45:00 PM 6.0511 6.4669
2/19/2023 7:00:00 PM 6.0414 6.6211
2/19/2023 7:15:00 PM 6.0372 7.6264
2/19/2023 7:30:00 PM 6.056 7.479
2/19/2023 7:45:00 PM 6.1382 7.4487
2/19/2023 8:00:00 PM 6.0669 7.9017
2/19/2023 8:15:00 PM 6.0436 7.8812
2/19/2023 8:30:00 PM 6.034 7.4648
2/19/2023 8:45:00 PM 6.0284 7.2
2/19/2023 9:00:00 PM 6.0576 7.7671
2/19/2023 9:15:00 PM 6.0978 7.5841
2/19/2023 9:30:00 PM 6.0469 7.9847
2/19/2023 9:45:00 PM 6.0324 8.595
2/19/2023 10:00:00 PM 6.0251 8.8709
2/19/2023 10:15:00 PM 6.0242 8.3153
2/19/2023 10:30:00 PM 6.1063 8.1331
2/19/2023 10:45:00 PM 6.0866 8.0568
2/19/2023 11:00:00 PM 6.0376 7.942
2/19/2023 11:15:00 PM 6.0224 7.45
2/19/2023 11:30:00 PM 6.0169 7.5245
2/19/2023 11:45:00 PM 6.0144 7.4
2/20/2023 12:00:00 AM 6.1037 6.8646
2/20/2023 12:15:00 AM 6.0458 7.0222
2/20/2023 12:30:00 AM 6.0234 7.2091
2/20/2023 12:45:00 AM 6.0171 6.8627
2/20/2023 1:00:00 AM 6.0194 7.0923
2/20/2023 1:15:00 AM 6.1128 6.9398
2/20/2023 1:30:00 AM 6.0656 6.7999
2/20/2023 1:45:00 AM 6.0258 6.8889
2/20/2023 2:00:00 AM 6.0149 7.6542
2/20/2023 2:15:00 AM 6.0155 9.0242
2/20/2023 2:30:00 AM 6.0899 11.4576
2/20/2023 2:45:00 AM 6.0984 12.9
2/20/2023 3:00:00 AM 6.0205 12.7445
2/20/2023 3:15:00 AM 6.0113 10.9845
2/20/2023 3:30:00 AM 6.0104 13.3082
2/20/2023 3:45:00 AM 6.0891 12.7884
2/20/2023 4:00:00 AM 6.0766 11.6453
2/20/2023 4:15:00 AM 6.0225 10.3544
2/20/2023 4:30:00 AM 6.009 9.2453
2/20/2023 4:45:00 AM 6.0069 9.8208
2/20/2023 5:00:00 AM 6.0487 10.0155
2/20/2023 5:15:00 AM 6.0904 11.0292
2/20/2023 5:30:00 AM 6.0217 10.4389
2/20/2023 5:45:00 AM 6.0088 9.4
2/20/2023 6:00:00 AM 6.0015 8.8081
2/20/2023 6:15:00 AM 6.0026 8.6164
2/20/2023 6:30:00 AM 6.0538 8.6415
2/20/2023 6:45:00 AM 6.0725 7.8711
2/20/2023 7:00:00 AM 6.0145 8.0645
2/20/2023 7:15:00 AM 5.9997 7.615
2/20/2023 7:30:00 AM 5.9961 7.5119
2/20/2023 7:45:00 AM 6.0096 7.2192
2/20/2023 8:00:00 AM 6.1111 7.2209
2/20/2023 8:15:00 AM 6.0233 7.0419
2/20/2023 8:30:00 AM 5.9961 6.9833
2/20/2023 8:45:00 AM 5.9934 6.9
2/20/2023 9:00:00 AM 5.9878 7.1631
2/20/2023 9:15:00 AM 6.0577 7.1391
2/20/2023 9:30:00 AM 6.0849 6.9919
2/20/2023 9:45:00 AM 6.0038 6.7276
2/20/2023 10:00:00 AM 5.9849 6.7377
2/20/2023 10:15:00 AM 5.9802 6.7031
2/20/2023 10:30:00 AM 5.9827 6.796
2/20/2023 10:45:00 AM 6.0595 6.7195
2/20/2023 11:00:00 AM 6.0191 6.8128
2/20/2023 11:15:00 AM 5.9851 6.487
2/20/2023 11:30:00 AM 5.9749 6.6198
2/20/2023 11:45:00 AM 5.9696 6.9999
2/20/2023 12:00:00 PM 5.982 6.8706
2/20/2023 12:15:00 PM 6.0372 7.3319
2/20/2023 12:30:00 PM 5.996 7.7686
2/20/2023 12:45:00 PM 5.9819 7.6038
2/20/2023 1:00:00 PM 5.978 7.7743
2/20/2023 1:15:00 PM 5.9775 7.8963
2/20/2023 1:30:00 PM 5.9918 8.2879
2/20/2023 1:45:00 PM 6.0651 7.7859
2/20/2023 2:00:00 PM 6.014 7.6023
2/20/2023 2:15:00 PM 5.9978 7.3024
2/20/2023 2:30:00 PM 5.993 7.654
2/20/2023 2:45:00 PM 5.9925 7.1422
2/20/2023 3:00:00 PM 6.0257 6.8775
2/20/2023 3:15:00 PM 6.094 6.7102
2/20/2023 3:30:00 PM 6.03 6.6881
2/20/2023 3:45:00 PM 6.0133 6.4835
2/20/2023 4:00:00 PM 6.0075 6.5071
2/20/2023 4:15:00 PM 6.0069 6.3129
2/20/2023 4:30:00 PM 6.0178 6.3512
2/20/2023 4:45:00 PM 6.0559 6.3611
2/20/2023 5:00:00 PM 6.0315 6.2712
2/20/2023 5:15:00 PM 6.0224 6.0615
2/20/2023 5:30:00 PM 6.0187 6.2674
2/20/2023 5:45:00 PM 6.0172 6.1999
2/20/2023 6:00:00 PM 6.0257 6.4346
2/20/2023 6:15:00 PM 6.0875 6.4383
2/20/2023 6:30:00 PM 6.0456 6.5218
2/20/2023 6:45:00 PM 6.029 6.3221
2/20/2023 7:00:00 PM 6.0209 6.4652
2/20/2023 7:15:00 PM 6.0162 6.2654
2/20/2023 7:30:00 PM 6.0253 6.8254
2/20/2023 7:45:00 PM 6.0627 6.5009
2/20/2023 8:00:00 PM 6.0287 6.4854
2/20/2023 8:15:00 PM 6.0146 6.3817
2/20/2023 8:30:00 PM 6.0078 6.3644
2/20/2023 8:45:00 PM 6.0074 6.1
2/20/2023 9:00:00 PM 6.0441 6.0702
2/20/2023 9:15:00 PM 6.0467 5.9662
2/20/2023 9:30:00 PM 6.0149 5.9992
2/20/2023 9:45:00 PM 6.0021 6.0876
2/20/2023 10:00:00 PM 5.9967 6.367
2/20/2023 10:15:00 PM 5.9965 6.463
2/20/2023 10:30:00 PM 6.0598 6.2723
2/20/2023 10:45:00 PM 6.0285 6.1219
2/20/2023 11:00:00 PM 6.0037 6.1381
2/20/2023 11:15:00 PM 5.994 16.3711
2/20/2023 11:30:00 PM 5.9916 6.7885
2/20/2023 11:45:00 PM 5.992 6.2
2/21/2023 12:00:00 AM 6.0693 5.7428
2/21/2023 12:15:00 AM 6.0136 6.1947
2/21/2023 12:30:00 AM 5.9942 5.6417
2/21/2023 12:45:00 AM 5.9857 5.5226
2/21/2023 1:00:00 AM 5.9845 5.5164
2/21/2023 1:15:00 AM 6.0265 5.3591
2/21/2023 1:30:00 AM 6.0169 5.3885
2/21/2023 1:45:00 AM 5.9919 5.3381
2/21/2023 2:00:00 AM 5.9832 5.3547
2/21/2023 2:15:00 AM 5.9793 5.4158
2/21/2023 2:30:00 AM 5.9987 5.729
2/21/2023 2:45:00 AM 6.0746 5.6
2/21/2023 3:00:00 AM 6.0059 5.6178
2/21/2023 3:15:00 AM 5.985 5.4934
2/21/2023 3:30:00 AM 5.978 5.8781
2/21/2023 3:45:00 AM 5.9779 5.9387
2/21/2023 4:00:00 AM 6.0245 5.9798
2/21/2023 4:15:00 AM 6.0477 6.7292
2/21/2023 4:30:00 AM 5.9966 6.8529
2/21/2023 4:45:00 AM 5.9818 6.1618
2/21/2023 5:00:00 AM 5.9769 5.9086
2/21/2023 5:15:00 AM 5.9804 5.6761
2/21/2023 5:30:00 AM 6.0777 5.572
2/21/2023 5:45:00 AM 6.1096 5.4
2/21/2023 6:00:00 AM 5.9975 5.2765
2/21/2023 6:15:00 AM 5.9806 5.2498
2/21/2023 6:30:00 AM 5.976 5.285
2/21/2023 6:45:00 AM 5.9858 5.6639
2/21/2023 7:00:00 AM 6.0984 5.6762
2/21/2023 7:15:00 AM 6.0222 5.6064
2/21/2023 7:30:00 AM 5.9853 5.4055
2/21/2023 7:45:00 AM 5.9746 5.2734
2/21/2023 8:00:00 AM 5.9735 5.2715
2/21/2023 8:15:00 AM 6.0448 5.2453
2/21/2023 8:30:00 AM 6.0855 5.9439
2/21/2023 8:45:00 AM 6.0312 5.8
2/21/2023 9:00:00 AM 5.984 5.5865
2/21/2023 9:15:00 AM 5.9779 5.5284
2/21/2023 9:30:00 AM 6.0128 5.5047
2/21/2023 9:45:00 AM 6.182 5.4147
2/21/2023 10:00:00 AM 6.0411 5.433
2/21/2023 10:15:00 AM 5.9961 5.3515
2/21/2023 10:30:00 AM 5.9831 5.3307
2/21/2023 10:45:00 AM 5.9882 5.4155
2/21/2023 11:00:00 AM 6.1977 5.191
2/21/2023 11:15:00 AM 6.1252 5.048
2/21/2023 11:30:00 AM 6.0329 5.0396
2/21/2023 11:45:00 AM 6.013 5
2/21/2023 12:00:00 PM 5.9919 4.9737
2/21/2023 12:15:00 PM 6.0701 4.896
2/21/2023 12:30:00 PM 6.2341 4.8819
2/21/2023 12:45:00 PM 6.0874 4.8817
2/21/2023 1:00:00 PM 6.0239 4.9012
2/21/2023 1:15:00 PM 6.0022 4.9324
2/21/2023 1:30:00 PM 5.9993 5.65
2/21/2023 1:45:00 PM 6.1701 5.1263
2/21/2023 2:00:00 PM 6.1543 4.9391
2/21/2023 2:15:00 PM 6.0592 4.9577
2/21/2023 2:30:00 PM 6.0185 4.9967
2/21/2023 2:45:00 PM 6.0044 4.9102
2/21/2023 3:00:00 PM 6.0194 5.1701
2/21/2023 3:15:00 PM 6.1827 6.0291
2/21/2023 3:30:00 PM 6.0944 10.3948
2/21/2023 3:45:00 PM 6.045 17.5094
2/21/2023 4:00:00 PM 6.0252 9.9624
2/21/2023 4:15:00 PM 6.0644 17.9269
2/21/2023 4:30:00 PM 6.1962 14.8841
2/21/2023 4:45:00 PM 6.0876 12.8577
2/21/2023 5:00:00 PM 6.0438 12.6446
2/21/2023 5:15:00 PM 6.028 14.0445
2/21/2023 5:30:00 PM 6.0278 13.4899
2/21/2023 5:45:00 PM 6.0368 12.6
2/21/2023 6:00:00 PM 6.0989 12.4324
2/21/2023 6:15:00 PM 6.0479 10.6885
2/21/2023 6:30:00 PM 6.0309 10.3334
2/21/2023 6:45:00 PM 6.0251 10.0878
2/21/2023 7:00:00 PM 6.0248 10.0471
2/21/2023 7:15:00 PM 6.1053 10.2455
2/21/2023 7:30:00 PM 6.1231 10.3064
2/21/2023 7:45:00 PM 6.0513 9.8649
2/21/2023 8:00:00 PM 6.0264 9.403
2/21/2023 8:15:00 PM 6.0174 8.8157
2/21/2023 8:30:00 PM 6.022 8.6876
2/21/2023 8:45:00 PM 6.0452 8.6
2/21/2023 9:00:00 PM 6.055 8.723
2/21/2023 9:15:00 PM 6.0265 10.181
2/21/2023 9:30:00 PM 6.0151 10.8802
2/21/2023 9:45:00 PM 6.0123 10.0587
2/21/2023 10:00:00 PM 6.0472 7.9567
2/21/2023 10:15:00 PM 6.1305 7.1462
2/21/2023 10:30:00 PM 6.0515 6.8805
2/21/2023 10:45:00 PM 6.0259 6.4647
2/21/2023 11:00:00 PM 6.0202 6.2214
2/21/2023 11:15:00 PM 6.0799 6.3152
2/21/2023 11:30:00 PM 6.2281 6.2598
2/21/2023 11:45:00 PM 6.1278 6.1999
2/22/2023 12:00:00 AM 6.0333 5.9358
2/22/2023 12:15:00 AM 6.0186 5.8725
2/22/2023 12:30:00 AM 6.0212 6.2809
2/22/2023 12:45:00 AM 6.236 6.061
2/22/2023 1:00:00 AM 6.3682 5.827
2/22/2023 1:15:00 AM 6.1661 5.6757
2/22/2023 1:30:00 AM 6.0648 5.5706
2/22/2023 1:45:00 AM 6.0347 5.5204
2/22/2023 2:00:00 AM 6.0345 5.4538
2/22/2023 2:15:00 AM 6.2303 5.3285
2/22/2023 2:30:00 AM 6.167 5.3048
2/22/2023 2:45:00 AM 6.1124 5.2
2/22/2023 3:00:00 AM 6.0371 5.3297
2/22/2023 3:15:00 AM 6.0279 6.2569
2/22/2023 3:30:00 AM 6.1133 5.9344
2/22/2023 3:45:00 AM 6.3478 5.6785
2/22/2023 4:00:00 AM 6.1597 5.9218
2/22/2023 4:15:00 AM 6.0625 6.3954
2/22/2023 4:30:00 AM 6.0282 6.1278
2/22/2023 4:45:00 AM 6.0274 6.6333
2/22/2023 5:00:00 AM 6.1964 6.1781
2/22/2023 5:15:00 AM 6.2344 6.8945
2/22/2023 5:30:00 AM 6.0952 6.9721
2/22/2023 5:45:00 AM 6.0606 6.8
2/22/2023 6:00:00 AM 6.0161 7.1994
2/22/2023 6:15:00 AM 6.0748 6.1464
2/22/2023 6:30:00 AM 6.3419 5.8821
2/22/2023 6:45:00 AM 6.162 5.7543
2/22/2023 7:00:00 AM 6.0637 5.6491
2/22/2023 7:15:00 AM 6.0268 5.557
2/22/2023 7:30:00 AM 6.0368 5.4815
2/22/2023 7:45:00 AM 6.3051 5.3765
2/22/2023 8:00:00 AM 6.2935 5.3548
2/22/2023 8:15:00 AM 6.1119 5.3386
2/22/2023 8:30:00 AM 6.0431 5.4104
2/22/2023 8:45:00 AM 6.0242 5.3
2/22/2023 9:00:00 AM 6.0927 5.2442
2/22/2023 9:15:00 AM 6.3967 5.1683
2/22/2023 9:30:00 AM 6.1929 5.1989
2/22/2023 9:45:00 AM 6.0749 5.2454
2/22/2023 10:00:00 AM 6.0324 5.2696
2/22/2023 10:15:00 AM 6.0238 5.4487
2/22/2023 10:30:00 AM 6.1809 5.1856
2/22/2023 10:45:00 AM 6.2711 5.1384
2/22/2023 11:00:00 AM 6.1048 5.0497
2/22/2023 11:15:00 AM 6.0456 5.0206
2/22/2023 11:30:00 AM 6.0242 4.9971
2/22/2023 11:45:00 AM 6.0214 5
2/22/2023 12:00:00 PM 6.2606 5.0437
2/22/2023 12:15:00 PM 6.1673 4.9621
2/22/2023 12:30:00 PM 6.0645 4.8501
2/22/2023 12:45:00 PM 6.0272 4.8197
2/22/2023 1:00:00 PM 6.0202 4.8574
2/22/2023 1:15:00 PM 6.0672 4.8186
2/22/2023 1:30:00 PM 6.2426 5.0965
2/22/2023 1:45:00 PM 6.099 5.123
2/22/2023 2:00:00 PM 6.0426 4.8262
2/22/2023 2:15:00 PM 6.0263 4.7134
2/22/2023 2:30:00 PM 6.0331 4.6392
2/22/2023 2:45:00 PM 6.1705 4.5476
2/22/2023 3:00:00 PM 6.2574 4.5542
2/22/2023 3:15:00 PM 6.0945 5.4159
2/22/2023 3:30:00 PM 6.0476 6.4645
2/22/2023 3:45:00 PM 6.0351 5.1731
2/22/2023 4:00:00 PM 6.0656 4.9574
2/22/2023 4:15:00 PM 6.3291 5.2277
2/22/2023 4:30:00 PM 6.2188 4.7896
2/22/2023 4:45:00 PM 6.0921 4.7808
2/22/2023 5:00:00 PM 6.0513 5.3476
2/22/2023 5:15:00 PM 6.042 5.6195
2/22/2023 5:30:00 PM 6.1036 4.9944
2/22/2023 5:45:00 PM 6.2272 4.7
2/22/2023 6:00:00 PM 6.1349 4.4847
2/22/2023 6:15:00 PM 6.0661 4.3681
2/22/2023 6:30:00 PM 6.043 4.2881
2/22/2023 6:45:00 PM 6.0503 4.4537
2/22/2023 7:00:00 PM 6.2397 4.8516
2/22/2023 7:15:00 PM 6.2857 4.5545
2/22/2023 7:30:00 PM 6.1111 4.6242
2/22/2023 7:45:00 PM 6.0626 4.6153
2/22/2023 8:00:00 PM 6.0444 5.446
2/22/2023 8:15:00 PM 6.0756 5.9223
2/22/2023 8:30:00 PM 6.3449 6.1834
2/22/2023 8:45:00 PM 6.433 5.8
2/22/2023 9:00:00 PM 6.1016 5.2044
2/22/2023 9:15:00 PM 6.0526 5.065
2/22/2023 9:30:00 PM 6.0391 4.9931
2/22/2023 9:45:00 PM 6.1449 4.9474
2/22/2023 10:00:00 PM 6.4813 4.865
2/22/2023 10:15:00 PM 6.3039 5.6218
2/22/2023 10:30:00 PM 6.1261 5.821
2/22/2023 10:45:00 PM 6.0697 5.7636
2/22/2023 11:00:00 PM 6.072 6.3549
2/22/2023 11:15:00 PM 6.3188 5.8544
2/22/2023 11:30:00 PM 6.2373 5.5047
2/22/2023 11:45:00 PM 6.1418 5.4
2/23/2023 12:00:00 AM 6.0568 5.1051
2/23/2023 12:15:00 AM 6.0497 5.0017
2/23/2023 12:30:00 AM 6.2292 4.8013
2/23/2023 12:45:00 AM 6.5473 4.7204
2/23/2023 1:00:00 AM 6.3493 4.7418
2/23/2023 1:15:00 AM 6.1564 4.6381
2/23/2023 1:30:00 AM 6.0748 4.5865
2/23/2023 1:45:00 AM 6.0888 4.6474
2/23/2023 2:00:00 AM 6.4041 4.7959
2/23/2023 2:15:00 AM 6.4517 5.02
2/23/2023 2:30:00 AM 6.2236 5.4071
2/23/2023 2:45:00 AM 6.146 5.7
2/23/2023 3:00:00 AM 6.0718 6.2301
2/23/2023 3:15:00 AM 6.1921 7.7678
2/23/2023 3:30:00 AM 6.473 8.0852
2/23/2023 3:45:00 AM 6.2605 8.4007
2/23/2023 4:00:00 AM 6.1157 8.0953
2/23/2023 4:15:00 AM 6.0727 7.8968
2/23/2023 4:30:00 AM 6.0834 8.5405
2/23/2023 4:45:00 AM 6.3376 8.0163
2/23/2023 5:00:00 AM 6.4163 9.3437
2/23/2023 5:15:00 AM 6.1535 11.1876
2/23/2023 5:30:00 AM 6.0765 9.3753
2/23/2023 5:45:00 AM 6.0606 8.3999
2/23/2023 6:00:00 AM 6.1619 7.1805
2/23/2023 6:15:00 AM 6.4606 7.1534
2/23/2023 6:30:00 AM 6.2379 7.2071
2/23/2023 6:45:00 AM 6.0925 7.4775
2/23/2023 7:00:00 AM 6.0513 7.3346
2/23/2023 7:15:00 AM 6.0719 7.1118
2/23/2023 7:30:00 AM 6.3319 7.1183
2/23/2023 7:45:00 AM 6.4489 7.2994
2/23/2023 8:00:00 AM 6.158 7.3803
2/23/2023 8:15:00 AM 6.0631 7.3438
2/23/2023 8:30:00 AM 6.0337 7.5806
2/23/2023 8:45:00 AM 6.0326 7.7
2/23/2023 9:00:00 AM 6.3511 7.735
2/23/2023 9:15:00 AM 6.1986 7.7266
2/23/2023 9:30:00 AM 6.0727 7.7654
2/23/2023 9:45:00 AM 6.0337 7.7523
2/23/2023 10:00:00 AM 6.0286 7.6094
2/23/2023 10:15:00 AM 6.1882 7.4502
2/23/2023 10:30:00 AM 6.2626 7.4259
2/23/2023 10:45:00 AM 6.0861 7.3651
2/23/2023 11:00:00 AM 6.0378 7.3301
2/23/2023 11:15:00 AM 6.0214 7.3413
2/23/2023 11:30:00 AM 6.0577 7.1996
2/23/2023 11:45:00 AM 6.1558 7.1
2/23/2023 12:00:00 PM 6.1504 7.2673
2/23/2023 12:15:00 PM 6.0608 7.3922
2/23/2023 12:30:00 PM 6.0281 7.6573
2/23/2023 12:45:00 PM 6.0194 7.9078
2/23/2023 1:00:00 PM 6.0688 8.228
2/23/2023 1:15:00 PM 6.2222 8.297
2/23/2023 1:30:00 PM 6.0834 8.5145
2/23/2023 1:45:00 PM 6.0439 8.9548
2/23/2023 2:00:00 PM 6.0287 9.3758
2/23/2023 2:15:00 PM 6.0298 10.5273
2/23/2023 2:30:00 PM 6.1327 11.5616
2/23/2023 2:45:00 PM 6.3227 12.5203
2/23/2023 3:00:00 PM 6.1214 13.6987
2/23/2023 3:15:00 PM 6.064 14.7272
2/23/2023 3:30:00 PM 6.0421 15.8915
2/23/2023 3:45:00 PM 6.0396 17.3788
2/23/2023 4:00:00 PM 6.1728 13.3858
2/23/2023 4:15:00 PM 6.37 7.6661
2/23/2023 4:30:00 PM 6.1492 7.732
2/23/2023 4:45:00 PM 6.0761 8.6427
2/23/2023 5:00:00 PM 6.049 8.8129
2/23/2023 5:15:00 PM 6.0391 8.2091
2/23/2023 5:30:00 PM 6.1453 8.3612
2/23/2023 5:45:00 PM 6.384 8.4
2/23/2023 6:00:00 PM 6.1129 7.2677
2/23/2023 6:15:00 PM 6.0634 11.5773
2/23/2023 6:30:00 PM 6.041 18.7898
2/23/2023 6:45:00 PM 6.0464 18.3213
2/23/2023 7:00:00 PM 6.2559 17.3559
2/23/2023 7:15:00 PM 6.1533 16.9494
2/23/2023 7:30:00 PM 6.0706 16.8696
2/23/2023 7:45:00 PM 6.0382 17.0015
2/23/2023 8:00:00 PM 6.0231 15.964
2/23/2023 8:15:00 PM 6.0578 14.2805
2/23/2023 8:30:00 PM 6.2083 13.2408
2/23/2023 8:45:00 PM 6.118 13.0999
2/23/2023 9:00:00 PM 6.0409 11.494
2/23/2023 9:15:00 PM 6.0241 10.9522
2/23/2023 9:30:00 PM 6.0181 11.0529
2/23/2023 9:45:00 PM 6.1159 10.0865
2/23/2023 10:00:00 PM 6.1256 9.8437
2/23/2023 10:15:00 PM 6.0524 10.1908
2/23/2023 10:30:00 PM 6.0271 9.2951
2/23/2023 10:45:00 PM 6.0155 9.2089
2/23/2023 11:00:00 PM 6.0207 9.3547
2/23/2023 11:15:00 PM 6.226 9.2166
2/23/2023 11:30:00 PM 6.1648 9.0946
2/23/2023 11:45:00 PM 6.0984 9.0998
2/24/2023 12:00:00 AM 6.0268 8.994
2/24/2023 12:15:00 AM 6.0102 9.0789
2/24/2023 12:30:00 AM 6.0288 9.4505
2/24/2023 12:45:00 AM 6.2346 10.6931
2/24/2023 1:00:00 AM 6.1051 10.6351
2/24/2023 1:15:00 AM 6.0365 10.2761
2/24/2023 1:30:00 AM 6.0125 9.8863
2/24/2023 1:45:00 AM 6.0048 9.9385
2/24/2023 2:00:00 AM 6.1158 10.0888
2/24/2023 2:15:00 AM 6.1522 10.3165
2/24/2023 2:30:00 AM 6.0513 10.6937
2/24/2023 2:45:00 AM 6.0312 11.0999
2/24/2023 3:00:00 AM 6.004 11.8446
2/24/2023 3:15:00 AM 6.0477 12.2956
2/24/2023 3:30:00 AM 6.2112 12.644
2/24/2023 3:45:00 AM 6.0679 14.2103
2/24/2023 4:00:00 AM 6.0251 15.9308
2/24/2023 4:15:00 AM 6.0097 16.9548
2/24/2023 4:30:00 AM 6.0908 16.9631
2/24/2023 4:45:00 AM 6.2472 18.72
2/24/2023 5:00:00 AM 6.0798 18.9509
2/24/2023 5:15:00 AM 6.0257 18.3028
2/24/2023 5:30:00 AM 6.0069 18.4143
2/24/2023 5:45:00 AM 6.0046 18.4999
2/24/2023 6:00:00 AM 6.2614 17.5668
2/24/2023 6:15:00 AM 6.0941 16.585
2/24/2023 6:30:00 AM 6.0285 15.8699
2/24/2023 6:45:00 AM 6.0081 14.9806
2/24/2023 7:00:00 AM 6.0638 14.0503
2/24/2023 7:15:00 AM 6.1528 12.8968
2/24/2023 7:30:00 AM 6.0366 12.1114
2/24/2023 7:45:00 AM 6.0071 11.2782
2/24/2023 8:00:00 AM 6.0015 10.7725
2/24/2023 8:15:00 AM 6.0384 10.8722
2/24/2023 8:30:00 AM 6.2221 11.6361
2/24/2023 8:45:00 AM 6.1082 11.4
2/24/2023 9:00:00 AM 6.0116 10.3768
2/24/2023 9:15:00 AM 6.0056 10.0653
2/24/2023 9:30:00 AM 6.1256 10.0143
2/24/2023 9:45:00 AM 6.5129 11.2215
2/24/2023 10:00:00 AM 6.6742 13.8397
2/24/2023 10:15:00 AM 6.5112 15.2397
2/24/2023 10:30:00 AM 6.3571 14.0491
2/24/2023 10:45:00 AM 6.3634 14.1998
2/24/2023 11:00:00 AM 6.4718 15.9236
2/24/2023 11:15:00 AM 6.5826 16.1539
2/24/2023 11:30:00 AM 6.512 14.9781
2/24/2023 11:45:00 AM 6.4218 14.8
2/24/2023 12:00:00 PM 6.2797 15.6766
2/24/2023 12:15:00 PM 6.4067 17.4754
2/24/2023 12:30:00 PM 6.5542 17.1767
2/24/2023 12:45:00 PM 6.4953 16.2338
2/24/2023 1:00:00 PM 6.323 16.45
2/24/2023 1:15:00 PM 6.2563 17.0998
2/24/2023 1:30:00 PM 6.3373 16.111
2/24/2023 1:45:00 PM 6.4824 15.2465
2/24/2023 2:00:00 PM 6.4125 14.9832
2/24/2023 2:15:00 PM 6.2868 15.2485
2/24/2023 2:30:00 PM 6.2298 15.9889
2/24/2023 2:45:00 PM 6.2603 15.9009
2/24/2023 3:00:00 PM 6.3724 16.1878
2/24/2023 3:15:00 PM 6.3335 15.8961
2/24/2023 3:30:00 PM 6.2452 15.9706
2/24/2023 3:45:00 PM 6.2157 15.8345
2/24/2023 4:00:00 PM 6.2787 14.5495
2/24/2023 4:15:00 PM 6.4511 13.514
2/24/2023 4:30:00 PM 6.3586 12.6765
2/24/2023 4:45:00 PM 6.2332 11.8785
2/24/2023 5:00:00 PM 6.2103 11.1636
2/24/2023 5:15:00 PM 6.3102 10.8269
2/24/2023 5:30:00 PM 6.4441 10.6979
2/24/2023 5:45:00 PM 6.5394 10.5
2/24/2023 6:00:00 PM 6.225 9.9198
2/24/2023 6:15:00 PM 6.1999 9.6118
2/24/2023 6:30:00 PM 6.2708 9.4414
2/24/2023 6:45:00 PM 6.3924 9.3228
2/24/2023 7:00:00 PM 6.467 9.1658
2/24/2023 7:15:00 PM 6.2403 9.1322
2/24/2023 7:30:00 PM 6.1862 9.135
2/24/2023 7:45:00 PM 6.2159 9.0177
2/24/2023 8:00:00 PM 6.3612 9.0328
2/24/2023 8:15:00 PM 6.4479 9.1585
2/24/2023 8:30:00 PM 6.2183 9.4744
2/24/2023 8:45:00 PM 6.1782 9.6
2/24/2023 9:00:00 PM 6.1964 9.2894
2/24/2023 9:15:00 PM 6.3412 9.1294
2/24/2023 9:30:00 PM 6.4603 8.9487
2/24/2023 9:45:00 PM 6.2278 9.0158
2/24/2023 10:00:00 PM 6.1552 8.9509
2/24/2023 10:15:00 PM 6.1726 8.8785
2/24/2023 10:30:00 PM 6.3272 9.7774
2/24/2023 10:45:00 PM 6.5528 10.1395
2/24/2023 11:00:00 PM 6.6355 10.5521
2/24/2023 11:15:00 PM 6.3764 9.8166
2/24/2023 11:30:00 PM 6.1778 9.6467
2/24/2023 11:45:00 PM 6.146 9.6
2/25/2023 12:00:00 AM 6.178 9.5483
2/25/2023 12:15:00 AM 6.2006 9.4613
2/25/2023 12:30:00 AM 6.2337 9.6967
2/25/2023 12:45:00 AM 6.216 9.614
2/25/2023 1:00:00 AM 6.1587 9.5083
2/25/2023 1:15:00 AM 6.1464 9.4581
2/25/2023 1:30:00 AM 6.1709 10.4574
2/25/2023 1:45:00 AM 6.2138 9.9904
2/25/2023 2:00:00 AM 6.2453 10.5489
2/25/2023 2:15:00 AM 6.3197 10.6174
2/25/2023 2:30:00 AM 6.4622 10.178
2/25/2023 2:45:00 AM 6.4694 9.9
2/25/2023 3:00:00 AM 6.199 9.3732
2/25/2023 3:15:00 AM 6.127 9.0691
2/25/2023 3:30:00 AM 6.1637 9.0004
2/25/2023 3:45:00 AM 6.3294 9.0469
2/25/2023 4:00:00 AM 6.5249 9.009
2/25/2023 4:15:00 AM 6.5867 8.9836
2/25/2023 4:30:00 AM 6.5479 8.9543
2/25/2023 4:45:00 AM 6.4551 8.9023
2/25/2023 5:00:00 AM 6.335 8.72
2/25/2023 5:15:00 AM 6.143 9.0999
2/25/2023 5:30:00 AM 6.102 8.8476
2/25/2023 5:45:00 AM 6.118 8.9
2/25/2023 6:00:00 AM 6.3251 8.7108
2/25/2023 6:15:00 AM 6.3565 8.4998
2/25/2023 6:30:00 AM 6.2303 8.5063
2/25/2023 6:45:00 AM 6.1811 8.5117
2/25/2023 7:00:00 AM 6.1713 8.6077
2/25/2023 7:15:00 AM 6.1683 9.3324
2/25/2023 7:30:00 AM 6.1522 9.2654
2/25/2023 7:45:00 AM 6.1134 9.6702
2/25/2023 8:00:00 AM 6.0929 9.7372
2/25/2023 8:15:00 AM 6.1069 9.7897
2/25/2023 8:30:00 AM 6.1948 9.7299
2/25/2023 8:45:00 AM 6.2692 9.8
2/25/2023 9:00:00 AM 6.18 10.0898
2/25/2023 9:15:00 AM 6.15 10.1888
2/25/2023 9:30:00 AM 6.1423 9.867
2/25/2023 9:45:00 AM 6.1449 10.3409
2/25/2023 10:00:00 AM 6.2232 11.2202
2/25/2023 10:15:00 AM 6.3679 9.6112
2/25/2023 10:30:00 AM 6.405 11.6056
2/25/2023 10:45:00 AM 6.4681 12.1776
2/25/2023 11:00:00 AM 6.2013 10.5096
2/25/2023 11:15:00 AM 6.0888 9.954
2/25/2023 11:30:00 AM 6.0725 9.5894
2/25/2023 11:45:00 AM 6.0844 9.4
2/25/2023 12:00:00 PM 6.2456 8.9501
2/25/2023 12:15:00 PM 6.3825 8.6377
2/25/2023 12:30:00 PM 6.4494 8.4831
2/25/2023 12:45:00 PM 6.494 8.3781
2/25/2023 1:00:00 PM 6.2854 8.2652
2/25/2023 1:15:00 PM 6.1071 8.3903
2/25/2023 1:30:00 PM 6.0781 8.2967
2/25/2023 1:45:00 PM 6.1128 8.2834
2/25/2023 2:00:00 PM 6.2126 8.2811
2/25/2023 2:15:00 PM 6.3368 8.0776
2/25/2023 2:30:00 PM 6.412 8.1019
2/25/2023 2:45:00 PM 6.419 8.2089
2/25/2023 3:00:00 PM 6.3403 9.2931
2/25/2023 3:15:00 PM 6.1445 8.3805
2/25/2023 3:30:00 PM 6.1029 8.2575
2/25/2023 3:45:00 PM 6.1071 8.0661
2/25/2023 4:00:00 PM 6.1839 8.2305
2/25/2023 4:15:00 PM 6.3008 8.2625
2/25/2023 4:30:00 PM 6.4017 8.0304
2/25/2023 4:45:00 PM 6.401 7.9079
2/25/2023 5:00:00 PM 6.1628 7.8172
2/25/2023 5:15:00 PM 6.116 7.7686
2/25/2023 5:30:00 PM 6.1089 7.5989
2/25/2023 5:45:00 PM 6.1222 7.6
2/25/2023 6:00:00 PM 6.2962 7.5054
2/25/2023 6:15:00 PM 6.4116 7.415
2/25/2023 6:30:00 PM 6.5058 7.3693
2/25/2023 6:45:00 PM 6.4107 7.3267
2/25/2023 7:00:00 PM 6.1557 7.4145
2/25/2023 7:15:00 PM 6.1027 7.4642
2/25/2023 7:30:00 PM 6.0948 7.4497
2/25/2023 7:45:00 PM 6.1555 7.605
2/25/2023 8:00:00 PM 6.2721 8.2428
2/25/2023 8:15:00 PM 6.3616 8.332
2/25/2023 8:30:00 PM 6.3872 7.7129
2/25/2023 8:45:00 PM 6.4162 7.6
2/25/2023 9:00:00 PM 6.1436 7.5735
2/25/2023 9:15:00 PM 6.083 7.5213
2/25/2023 9:30:00 PM 6.068 7.359
2/25/2023 9:45:00 PM 6.1112 7.3471
2/25/2023 10:00:00 PM 6.225 7.4246
2/25/2023 10:15:00 PM 6.3481 7.3461
2/25/2023 10:30:00 PM 6.336 7.433
2/25/2023 10:45:00 PM 6.4073 7.772
2/25/2023 11:00:00 PM 6.3214 7.7333
2/25/2023 11:15:00 PM 6.0972 7.8928
2/25/2023 11:30:00 PM 6.0583 7.7929
2/25/2023 11:45:00 PM 6.048 7.6999
2/26/2023 12:00:00 AM 6.1261 8.11
2/26/2023 12:15:00 AM 6.2424 8.2237
2/26/2023 12:30:00 AM 6.3061 8.189
2/26/2023 12:45:00 AM 6.3889 7.934
2/26/2023 1:00:00 AM 6.376 7.8698
2/26/2023 1:15:00 AM 6.4035 8.2697
2/26/2023 1:30:00 AM 6.3745 8.0105
2/26/2023 1:45:00 AM 6.3381 7.8133
2/26/2023 2:00:00 AM 6.1092 7.7053
2/26/2023 2:15:00 AM 6.0583 7.6694
2/26/2023 2:30:00 AM 6.0444 7.5473
2/26/2023 2:45:00 AM 6.0536 7.5
2/26/2023 3:00:00 AM 6.178 7.4495
2/26/2023 3:15:00 AM 6.3215 7.3364
2/26/2023 3:30:00 AM 6.3768 7.3212
2/26/2023 3:45:00 AM 6.3815 7.4938
2/26/2023 4:00:00 AM 6.4 7.9348
2/26/2023 4:15:00 AM 6.3262 8.0855
2/26/2023 4:30:00 AM 6.3136 7.8659
2/26/2023 4:45:00 AM 6.3067 7.9109
2/26/2023 5:00:00 AM 6.1266 7.9404
2/26/2023 5:15:00 AM 6.0644 7.76
2/26/2023 5:30:00 AM 6.0458 7.6821
2/26/2023 5:45:00 AM 6.0564 7.5
2/26/2023 6:00:00 AM 6.1669 7.461
2/26/2023 6:15:00 AM 6.1421 7.4383
2/26/2023 6:30:00 AM 6.1244 7.4257
2/26/2023 6:45:00 AM 6.1236 7.3347
2/26/2023 7:00:00 AM 6.0795 7.3433
2/26/2023 7:15:00 AM 6.0624 7.4922
2/26/2023 7:30:00 AM 6.059 7.7155
2/26/2023 7:45:00 AM 6.059 7.7714
2/26/2023 8:00:00 AM 6.0609 7.6356
2/26/2023 8:15:00 AM 6.06 7.5267
2/26/2023 8:30:00 AM 6.059 7.4655
2/26/2023 8:45:00 AM 6.0606 7.5
2/26/2023 9:00:00 AM 6.0542 7.5042
2/26/2023 9:15:00 AM 6.0525 7.3098
2/26/2023 9:30:00 AM 6.0494 7.2221
2/26/2023 9:45:00 AM 6.0493 7.1933
2/26/2023 10:00:00 AM 6.0464 7.1357
2/26/2023 10:15:00 AM 6.0442 7.1453
2/26/2023 10:30:00 AM 6.0447 7.2289
2/26/2023 10:45:00 AM 6.0414 7.1996
2/26/2023 11:00:00 AM 6.0402 7.2621
2/26/2023 11:15:00 AM 6.0398 7.1469
2/26/2023 11:30:00 AM 6.0401 7.2177
2/26/2023 11:45:00 AM 6.041 7.2
2/26/2023 12:00:00 PM 6.0399 7.6301
2/26/2023 12:15:00 PM 6.0398 8.4658
2/26/2023 12:30:00 PM 6.0396 9.8992
2/26/2023 12:45:00 PM 6.0394 10.933
2/26/2023 1:00:00 PM 6.0397 10.9783
2/26/2023 1:15:00 PM 6.0378 10.31
2/26/2023 1:30:00 PM 6.0356 10.1405
2/26/2023 1:45:00 PM 6.0371 11.3227
2/26/2023 2:00:00 PM 6.0389 13.4608
2/26/2023 2:15:00 PM 6.04 14.3277
2/26/2023 2:30:00 PM 6.0421 15.1179
2/26/2023 2:45:00 PM 6.0444 16.1864
2/26/2023 3:00:00 PM 6.0447 17.0308
2/26/2023 3:15:00 PM 6.046 16.2493
2/26/2023 3:30:00 PM 6.0493 15.4015
2/26/2023 3:45:00 PM 6.05 14.9888
2/26/2023 4:00:00 PM 6.0522 14.391
2/26/2023 4:15:00 PM 6.054 13.6963
2/26/2023 4:30:00 PM 6.0542 13.6968
2/26/2023 4:45:00 PM 6.0539 13.3713
2/26/2023 5:00:00 PM 6.0546 12.1838
2/26/2023 5:15:00 PM 6.0586 10.998
2/26/2023 5:30:00 PM 6.0578 10.328
2/26/2023 5:45:00 PM 6.0606 10.1
2/26/2023 6:00:00 PM 6.054 9.3775
2/26/2023 6:15:00 PM 6.0539 9.0209
2/26/2023 6:30:00 PM 6.0529 8.8253
2/26/2023 6:45:00 PM 6.0491 8.6432
2/26/2023 7:00:00 PM 6.0473 8.4951
2/26/2023 7:15:00 PM 6.0452 8.5033
2/26/2023 7:30:00 PM 6.0406 8.3828
2/26/2023 7:45:00 PM 6.0395 8.218
2/26/2023 8:00:00 PM 6.0351 8.1567
2/26/2023 8:15:00 PM 6.0332 8.3023
2/26/2023 8:30:00 PM 6.0393 8.2573
2/26/2023 8:45:00 PM 6.041 8.1
2/26/2023 9:00:00 PM 6.0719 7.8867
2/26/2023 9:15:00 PM 6.0899 8.3903
2/26/2023 9:30:00 PM 6.1183 7.9324
2/26/2023 9:45:00 PM 6.1329 7.6787
2/26/2023 10:00:00 PM 6.0609 7.563
2/26/2023 10:15:00 PM 6.0339 7.7149
2/26/2023 10:30:00 PM 6.0226 8.4743
2/26/2023 10:45:00 PM 6.0157 8.1536
2/26/2023 11:00:00 PM 6.0114 8.0244
2/26/2023 11:15:00 PM 6.0073 7.9405
2/26/2023 11:30:00 PM 6.0056 8.1068
2/26/2023 11:45:00 PM 6.006 8.2
2/27/2023 12:00:00 AM 6.0015 7.9833
2/27/2023 12:15:00 AM 6.0016 7.863
2/27/2023 12:30:00 AM 6.0017 7.7198
2/27/2023 12:45:00 AM 5.9996 7.6372
2/27/2023 1:00:00 AM 5.9969 7.6166
2/27/2023 1:15:00 AM 5.9972 7.5379
2/27/2023 1:30:00 AM 5.9989 7.5364
2/27/2023 1:45:00 AM 5.9991 7.518
2/27/2023 2:00:00 AM 5.9982 7.4942
2/27/2023 2:15:00 AM 5.9981 7.5018
2/27/2023 2:30:00 AM 6.0042 7.5474
2/27/2023 2:45:00 AM 6.013 7.5
2/27/2023 3:00:00 AM 6.0299 7.4317
2/27/2023 3:15:00 AM 6.0487 7.4143
2/27/2023 3:30:00 AM 6.0577 7.2942
2/27/2023 3:45:00 AM 6.0738 7.4105
2/27/2023 4:00:00 AM 6.0437 7.4426
2/27/2023 4:15:00 AM 6.0105 7.3111
2/27/2023 4:30:00 AM 6.001 7.2831
2/27/2023 4:45:00 AM 5.997 7.3434
2/27/2023 5:00:00 AM 5.9961 7.3806
2/27/2023 5:15:00 AM 5.9928 7.3567
2/27/2023 5:30:00 AM 5.9916 7.9313
2/27/2023 5:45:00 AM 5.9948 8
2/27/2023 6:00:00 AM 5.9834 8.5603
2/27/2023 6:15:00 AM 5.9908 8.2844
2/27/2023 6:30:00 AM 5.9896 7.9642
2/27/2023 6:45:00 AM 5.9872 7.8198
2/27/2023 7:00:00 AM 5.9871 7.8363
2/27/2023 7:15:00 AM 5.9871 7.9258
2/27/2023 7:30:00 AM 5.9847 7.9235
2/27/2023 7:45:00 AM 5.9853 7.7869
2/27/2023 8:00:00 AM 5.9985 7.57
2/27/2023 8:15:00 AM 6.0194 7.3118
2/27/2023 8:30:00 AM 6.0379 7.1544
2/27/2023 8:45:00 AM 6.0536 7.1
2/27/2023 9:00:00 AM 6.0522 6.9824
2/27/2023 9:15:00 AM 6.009 6.9035
2/27/2023 9:30:00 AM 5.9843 6.9373
2/27/2023 9:45:00 AM 5.9768 6.99
2/27/2023 10:00:00 AM 5.9736 6.9474
2/27/2023 10:15:00 AM 5.9726 6.9885
2/27/2023 10:30:00 AM 5.9728 7.1191
2/27/2023 10:45:00 AM 5.9725 6.9909
2/27/2023 11:00:00 AM 5.9726 6.8663
2/27/2023 11:15:00 AM 5.9715 6.7636
2/27/2023 11:30:00 AM 5.9684 6.728
2/27/2023 11:45:00 AM 5.9696 6.8
2/27/2023 12:00:00 PM 5.9678 6.5686
2/27/2023 12:15:00 PM 5.967 6.4994
2/27/2023 12:30:00 PM 5.967 6.6206
2/27/2023 12:45:00 PM 5.9676 6.5832
2/27/2023 1:00:00 PM 5.9675 6.5391
2/27/2023 1:15:00 PM 5.9705 6.4985
2/27/2023 1:30:00 PM 5.9727 6.431
2/27/2023 1:45:00 PM 5.9754 6.558
2/27/2023 2:00:00 PM 5.9782 6.3072
2/27/2023 2:15:00 PM 5.982 6.2348
2/27/2023 2:30:00 PM 5.9848 6.3001
2/27/2023 2:45:00 PM 5.9891 6.6022
2/27/2023 3:00:00 PM 5.9896 6.4628
2/27/2023 3:15:00 PM 5.9963 6.3662
2/27/2023 3:30:00 PM 6.0021 6.26
2/27/2023 3:45:00 PM 6.0073 6.2261
2/27/2023 4:00:00 PM 6.0113 6.1674
2/27/2023 4:15:00 PM 6.0157 6.1561
2/27/2023 4:30:00 PM 6.0194 6.0746
2/27/2023 4:45:00 PM 6.0223 6.0343
2/27/2023 5:00:00 PM 6.0254 6.0269
2/27/2023 5:15:00 PM 6.0255 5.9883
2/27/2023 5:30:00 PM 6.0298 5.965
2/27/2023 5:45:00 PM 6.0312 6
2/27/2023 6:00:00 PM 6.0303 6.3642
2/27/2023 6:15:00 PM 6.0307 6.1861
2/27/2023 6:30:00 PM 6.0308 6.0629
2/27/2023 6:45:00 PM 6.0306 6.525
2/27/2023 7:00:00 PM 6.0312 8.2548
2/27/2023 7:15:00 PM 6.0314 7.6759
2/27/2023 7:30:00 PM 6.0316 6.9956
2/27/2023 7:45:00 PM 6.033 6.6083
2/27/2023 8:00:00 PM 6.0339 6.4697
2/27/2023 8:15:00 PM 6.0328 6.3441
2/27/2023 8:30:00 PM 6.032 6.9098
2/27/2023 8:45:00 PM 6.0312 7
2/27/2023 9:00:00 PM 6.0327 6.3573
2/27/2023 9:15:00 PM 6.0308 6.1475
2/27/2023 9:30:00 PM 6.03 5.9837
2/27/2023 9:45:00 PM 6.0337 5.9826
2/27/2023 10:00:00 PM 6.0651 7.0862
2/27/2023 10:15:00 PM 6.1603 6.842
2/27/2023 10:30:00 PM 6.2143 6.7186
2/27/2023 10:45:00 PM 6.2384 6.7656
2/27/2023 11:00:00 PM 6.1204 6.6227
2/27/2023 11:15:00 PM 6.0603 6.8595
2/27/2023 11:30:00 PM 6.0393 6.9623
2/27/2023 11:45:00 PM 6.0368 7
2/28/2023 12:00:00 AM 6.0262 7.6066
2/28/2023 12:15:00 AM 6.0256 7.5294
2/28/2023 12:30:00 AM 6.0216 7.3349
2/28/2023 12:45:00 AM 6.0209 7.0826
2/28/2023 1:00:00 AM 6.021 6.7112
2/28/2023 1:15:00 AM 6.0209 6.465
2/28/2023 1:30:00 AM 6.0192 6.2859
2/28/2023 1:45:00 AM 6.0166 7.0864
2/28/2023 2:00:00 AM 6.0163 8.7499
2/28/2023 2:15:00 AM 6.0164 9.9467
2/28/2023 2:30:00 AM 6.0166 10.1983
2/28/2023 2:45:00 AM 6.0172 10
2/28/2023 3:00:00 AM 6.0166 9.0676
2/28/2023 3:15:00 AM 6.0164 8.4369
2/28/2023 3:30:00 AM 6.0164 8.6521
2/28/2023 3:45:00 AM 6.0163 9.6272
2/28/2023 4:00:00 AM 6.0165 12.4971
2/28/2023 4:15:00 AM 6.0162 10.8136
2/28/2023 4:30:00 AM 6.0158 9.4877
2/28/2023 4:45:00 AM 6.0151 10.8612
2/28/2023 5:00:00 AM 6.0122 10.3631
2/28/2023 5:15:00 AM 6.0155 9.0834
2/28/2023 5:30:00 AM 6.0509 8.9735
2/28/2023 5:45:00 AM 6.0928 8.7
2/28/2023 6:00:00 AM 6.1664 8.1773
2/28/2023 6:15:00 AM 6.224 9.2044
2/28/2023 6:30:00 AM 6.178 10.6499
2/28/2023 6:45:00 AM 6.0818 8.9413
2/28/2023 7:00:00 AM 6.0331 8.0227
2/28/2023 7:15:00 AM 6.0145 7.2414
2/28/2023 7:30:00 AM 6.0067 6.918
2/28/2023 7:45:00 AM 6.0048 6.5974
2/28/2023 8:00:00 AM 6.0026 6.5933
2/28/2023 8:15:00 AM 6.0021 6.1589
2/28/2023 8:30:00 AM 6.0013 5.9659
2/28/2023 8:45:00 AM 6.0004 5.9
2/28/2023 9:00:00 AM 6.0018 5.7061
2/28/2023 9:15:00 AM 6.0017 5.5519
2/28/2023 9:30:00 AM 6.0013 5.4529
2/28/2023 9:45:00 AM 6.0015 5.3051
2/28/2023 10:00:00 AM 6.0019 5.1791
2/28/2023 10:15:00 AM 6.0016 5.0623
2/28/2023 10:30:00 AM 6.0014 5.0316
2/28/2023 10:45:00 AM 6.0018 4.9279
2/28/2023 11:00:00 AM 6.0018 4.9349
2/28/2023 11:15:00 AM 6.0013 4.9373
2/28/2023 11:30:00 AM 6.0017 4.8699
2/28/2023 11:45:00 AM 6.0004 4.9
2/28/2023 12:00:00 PM 6.0054 4.8143
2/28/2023 12:15:00 PM 6.0164 4.7298
2/28/2023 12:30:00 PM 6.0447 4.7435
2/28/2023 12:45:00 PM 6.1016 4.7446
2/28/2023 1:00:00 PM 6.1618 4.7251
2/28/2023 1:15:00 PM 6.218 4.6796
2/28/2023 1:30:00 PM 6.1395 4.6518
2/28/2023 1:45:00 PM 6.064 4.6351
2/28/2023 2:00:00 PM 6.04 4.6221
2/28/2023 2:15:00 PM 6.0321 4.6382
2/28/2023 2:30:00 PM 6.0304 4.6518
2/28/2023 2:45:00 PM 6.0305 4.5646
2/28/2023 3:00:00 PM 6.0305 4.5441
2/28/2023 3:15:00 PM 6.0348 4.5238
2/28/2023 3:30:00 PM 6.0358 4.5453
2/28/2023 3:45:00 PM 6.0391 4.5342
2/28/2023 4:00:00 PM 6.044 4.5306
2/28/2023 4:15:00 PM 6.0478 4.4573
2/28/2023 4:30:00 PM 6.0515 4.431
2/28/2023 4:45:00 PM 6.0555 4.4227
2/28/2023 5:00:00 PM 6.0597 4.4362
2/28/2023 5:15:00 PM 6.0639 4.5476
2/28/2023 5:30:00 PM 6.0665 4.6
2/28/2023 5:45:00 PM 6.0704 4.5001
2/28/2023 6:00:00 PM 6.0688 4.4409
2/28/2023 6:15:00 PM 6.0686 4.4385
2/28/2023 6:30:00 PM 6.0684 4.3663
2/28/2023 6:45:00 PM 6.0684 4.3431
2/28/2023 7:00:00 PM 6.0687 4.3303
2/28/2023 7:15:00 PM 6.0682 4.3323
2/28/2023 7:30:00 PM 6.0657 4.349
2/28/2023 7:45:00 PM 6.0641 4.6429
2/28/2023 8:00:00 PM 6.0639 5.6698
2/28/2023 8:15:00 PM 6.0634 5.4761
2/28/2023 8:30:00 PM 6.0598 5.4054
2/28/2023 8:45:00 PM 6.0606 5.2015
2/28/2023 9:00:00 PM 6.0592 4.8996
2/28/2023 9:15:00 PM 6.0561 4.7383
2/28/2023 9:30:00 PM 6.0547 4.7201
2/28/2023 9:45:00 PM 6.0548 4.6415
2/28/2023 10:00:00 PM 6.0546 4.5483
2/28/2023 10:15:00 PM 6.05 4.563
2/28/2023 10:30:00 PM 6.0496 5.1103
2/28/2023 10:45:00 PM 6.0471 5.3593
2/28/2023 11:00:00 PM 6.045 5.2906
2/28/2023 11:15:00 PM 6.042 5.1545
2/28/2023 11:30:00 PM 6.0399 5.0547
2/28/2023 11:45:00 PM 6.041 5.1
3/1/2023 12:00:00 AM 6.035 5.2664
3/1/2023 12:15:00 AM 6.0349 6.4314
3/1/2023 12:30:00 AM 6.0313 6.8774
3/1/2023 12:45:00 AM 6.0303 6.5317
3/1/2023 1:00:00 AM 6.0305 6.8905
3/1/2023 1:15:00 AM 6.0274 7.2362
3/1/2023 1:30:00 AM 6.0257 7.1704
3/1/2023 1:45:00 AM 6.0257 6.4748
3/1/2023 2:00:00 AM 6.0259 5.8843
3/1/2023 2:15:00 AM 6.0261 5.5622
3/1/2023 2:30:00 AM 6.0242 5.2787
3/1/2023 2:45:00 AM 6.0228 5
3/1/2023 3:00:00 AM 6.0212 4.9423
3/1/2023 3:15:00 AM 6.0208 5.415
3/1/2023 3:30:00 AM 6.0211 6.1022
3/1/2023 3:45:00 AM 6.0208 7.3097
3/1/2023 4:00:00 AM 6.0192 7.7789
3/1/2023 4:15:00 AM 6.0165 6.8694
3/1/2023 4:30:00 AM 6.0168 6.8354
3/1/2023 4:45:00 AM 6.0168 8.5545
3/1/2023 5:00:00 AM 6.0137 11.4117
3/1/2023 5:15:00 AM 6.0125 14.0971
3/1/2023 5:30:00 AM 6.0201 13.9741
3/1/2023 5:45:00 AM 6.0284 11.9
3/1/2023 6:00:00 AM 6.0793 8.4696
3/1/2023 6:15:00 AM 6.1121 7.3947
3/1/2023 6:30:00 AM 6.1258 6.6905
3/1/2023 6:45:00 AM 6.1094 5.9674
3/1/2023 7:00:00 AM 6.0508 5.6789
3/1/2023 7:15:00 AM 6.0199 5.2919
3/1/2023 7:30:00 AM 6.0061 5.0943
3/1/2023 7:45:00 AM 5.9999 4.9262
3/1/2023 8:00:00 AM 5.9965 4.7493
3/1/2023 8:15:00 AM 5.9954 4.5506
3/1/2023 8:30:00 AM 5.992 4.4919
3/1/2023 8:45:00 AM 5.992 4.4001
3/1/2023 9:00:00 AM 5.991 4.3242
3/1/2023 9:15:00 AM 5.9875 4.367
3/1/2023 9:30:00 AM 5.9869 4.4392
3/1/2023 9:45:00 AM 5.9857 7.7096
3/1/2023 10:00:00 AM 5.9822 4.6315
3/1/2023 10:15:00 AM 5.982 4.3941
3/1/2023 10:30:00 AM 5.982 4.2584
3/1/2023 10:45:00 AM 5.9815 4.2937
3/1/2023 11:00:00 AM 5.9791 4.1934
3/1/2023 11:15:00 AM 5.9774 4.1414
3/1/2023 11:30:00 AM 5.9781 4.1158
3/1/2023 11:45:00 AM 5.978 4.0998
3/1/2023 12:00:00 PM 5.9823 4.1013
3/1/2023 12:15:00 PM 5.9835 4.0399
3/1/2023 12:30:00 PM 5.9869 4.038
3/1/2023 12:45:00 PM 5.9873 3.9657
3/1/2023 1:00:00 PM 5.9902 4.0306
3/1/2023 1:15:00 PM 5.9919 3.9905
3/1/2023 1:30:00 PM 5.9946 3.9425
3/1/2023 1:45:00 PM 5.9971 3.9442
3/1/2023 2:00:00 PM 6.0007 3.9231
3/1/2023 2:15:00 PM 6.0032 3.9283
3/1/2023 2:30:00 PM 6.0064 3.9186
3/1/2023 2:45:00 PM 6.0107 3.8649
3/1/2023 3:00:00 PM 6.0146 3.9116
3/1/2023 3:15:00 PM 6.0188 3.8266
3/1/2023 3:30:00 PM 6.023 3.8459
3/1/2023 3:45:00 PM 6.0281 3.8315
3/1/2023 4:00:00 PM 6.0329 3.8342
3/1/2023 4:15:00 PM 6.0389 3.7744
3/1/2023 4:30:00 PM 6.0436 3.7556
3/1/2023 4:45:00 PM 6.0473 3.7376
3/1/2023 5:00:00 PM 6.0525 3.7362
3/1/2023 5:15:00 PM 6.0553 3.7568
3/1/2023 5:30:00 PM 6.0588 3.7347
3/1/2023 5:45:00 PM 6.0578 3.7999
3/1/2023 6:00:00 PM 6.0665 4.0384
3/1/2023 6:15:00 PM 6.0689 4.0524
3/1/2023 6:30:00 PM 6.0705 4.0809
3/1/2023 6:45:00 PM 6.0726 4.1481
3/1/2023 7:00:00 PM 6.0733 4.6156
3/1/2023 7:15:00 PM 6.0732 6.2438
3/1/2023 7:30:00 PM 6.0728 5.3765
3/1/2023 7:45:00 PM 6.071 5.2626
3/1/2023 8:00:00 PM 6.0687 5.1624
3/1/2023 8:15:00 PM 6.0686 4.7671
3/1/2023 8:30:00 PM 6.0683 4.5864
3/1/2023 8:45:00 PM 6.0676 4.5
3/1/2023 9:00:00 PM 6.0641 4.4357
3/1/2023 9:15:00 PM 6.0642 4.292
3/1/2023 9:30:00 PM 6.063 4.2487
3/1/2023 9:45:00 PM 6.0598 4.2419
3/1/2023 10:00:00 PM 6.0589 4.1693
3/1/2023 10:15:00 PM 6.0591 4.1927
3/1/2023 10:30:00 PM 6.0556 4.2518
3/1/2023 10:45:00 PM 6.0547 4.2449
3/1/2023 11:00:00 PM 6.0541 4.2976
3/1/2023 11:15:00 PM 6.0505 4.7855
3/1/2023 11:30:00 PM 6.0486 5.4847
3/1/2023 11:45:00 PM 6.0466 5.3999
3/2/2023 12:00:00 AM 6.0424 4.9385
3/2/2023 12:15:00 AM 6.04 4.7592
3/2/2023 12:30:00 AM 6.0363 5.2182
3/2/2023 12:45:00 AM 6.0333 6.785
3/2/2023 1:00:00 AM 6.0308 7.0341
3/2/2023 1:15:00 AM 6.028 6.3671
3/2/2023 1:30:00 AM 6.0257 7.2938
3/2/2023 1:45:00 AM 6.025 8.4103
3/2/2023 2:00:00 AM 6.0216 8.5578
3/2/2023 2:15:00 AM 6.0209 8.0551
3/2/2023 2:30:00 AM 6.0209 7.6884
3/2/2023 2:45:00 AM 6.0186 7.9
3/2/2023 3:00:00 AM 6.0166 7.8224
3/2/2023 3:15:00 AM 6.0156 7.0275
3/2/2023 3:30:00 AM 6.0115 6.7386
3/2/2023 3:45:00 AM 6.011 6.0127
3/2/2023 4:00:00 AM 6.008 6.764
3/2/2023 4:15:00 AM 6.0068 8.375
3/2/2023 4:30:00 AM 6.0033 9.6052
3/2/2023 4:45:00 AM 6.0013 13.1353
3/2/2023 5:00:00 AM 5.9979 16.7107
3/2/2023 5:15:00 AM 5.9972 13.4264
3/2/2023 5:30:00 AM 5.9925 12.0664
3/2/2023 5:45:00 AM 5.9906 11.4
3/2/2023 6:00:00 AM 5.9883 8.083
3/2/2023 6:15:00 AM 5.9872 6.4574
3/2/2023 6:30:00 AM 5.9853 6.0194
3/2/2023 6:45:00 AM 5.9822 5.8004
3/2/2023 7:00:00 AM 5.9809 5.7079
3/2/2023 7:15:00 AM 5.9775 5.262
3/2/2023 7:30:00 AM 5.9767 4.7972
3/2/2023 7:45:00 AM 5.9727 4.6297
3/2/2023 8:00:00 AM 5.9706 5.1336
3/2/2023 8:15:00 AM 5.9677 4.4832
3/2/2023 8:30:00 AM 5.9676 4.3876
3/2/2023 8:45:00 AM 5.9682 4.4
3/2/2023 9:00:00 AM 5.9634 4.8498
3/2/2023 9:15:00 AM 5.9628 5.1289
3/2/2023 9:30:00 AM 5.9629 4.4701
3/2/2023 9:45:00 AM 5.9626 4.3659
3/2/2023 10:00:00 AM 5.9627 4.3332
3/2/2023 10:15:00 AM 5.963 4.6044
3/2/2023 10:30:00 AM 5.9629 5.3655
3/2/2023 10:45:00 AM 5.9654 5.459
3/2/2023 11:00:00 AM 5.9676 6.642
3/2/2023 11:15:00 AM 5.9676 6.6001
3/2/2023 11:30:00 AM 5.9675 5.7892
3/2/2023 11:45:00 AM 5.964 5.5999
3/2/2023 12:00:00 PM 5.9721 5.3624
3/2/2023 12:15:00 PM 5.9749 5.2617
3/2/2023 12:30:00 PM 5.9796 5.2423
3/2/2023 12:45:00 PM 5.9826 5.4194
3/2/2023 1:00:00 PM 5.9864 5.883
3/2/2023 1:15:00 PM 5.9899 6.6313
3/2/2023 1:30:00 PM 5.9936 7.75
3/2/2023 1:45:00 PM 5.9983 9.7596
3/2/2023 2:00:00 PM 6.0023 12.7789
3/2/2023 2:15:00 PM 6.0062 16.1465
3/2/2023 2:30:00 PM 6.0102 10.7992
3/2/2023 2:45:00 PM 6.0117 11.9355
3/2/2023 3:00:00 PM 6.0139 14.3666
3/2/2023 3:15:00 PM 6.0157 15.709
3/2/2023 3:30:00 PM 6.0163 15.998
3/2/2023 3:45:00 PM 6.0163 16.152
3/2/2023 4:00:00 PM 6.016 16.2888
3/2/2023 4:15:00 PM 6.0164 16.3168
3/2/2023 4:30:00 PM 6.0168 15.7145
3/2/2023 4:45:00 PM 6.0204 14.8153
3/2/2023 5:00:00 PM 6.0206 14.2461
3/2/2023 5:15:00 PM 6.021 13.208
3/2/2023 5:30:00 PM 6.0209 11.7082
3/2/2023 5:45:00 PM 6.0228 10.8
3/2/2023 6:00:00 PM 6.0206 8.1026
3/2/2023 6:15:00 PM 6.0205 13.885
3/2/2023 6:30:00 PM 6.0208 18.276
3/2/2023 6:45:00 PM 6.0215 17.1528
3/2/2023 7:00:00 PM 6.0206 15.6803
3/2/2023 7:15:00 PM 6.0212 14.1807
3/2/2023 7:30:00 PM 6.0213 13.3671
3/2/2023 7:45:00 PM 6.0208 12.5622
3/2/2023 8:00:00 PM 6.0224 11.6637
3/2/2023 8:15:00 PM 6.0254 11.615
3/2/2023 8:30:00 PM 6.0238 11.1934
3/2/2023 8:45:00 PM 6.02 10.9
3/2/2023 9:00:00 PM 6.0239 9.8824
3/2/2023 9:15:00 PM 6.0256 10.0552
3/2/2023 9:30:00 PM 6.0257 10.708
3/2/2023 9:45:00 PM 6.0245 10.8616
3/2/2023 10:00:00 PM 6.0239 11.0863
3/2/2023 10:15:00 PM 6.0221 10.961
3/2/2023 10:30:00 PM 6.0207 10.1558
3/2/2023 10:45:00 PM 6.0214 9.622
3/2/2023 11:00:00 PM 6.0206 9.3514
3/2/2023 11:15:00 PM 6.0204 8.8548
3/2/2023 11:30:00 PM 6.016 8.258
3/2/2023 11:45:00 PM 6.013 8.3
3/3/2023 12:00:00 AM 6.0141 7.8967
3/3/2023 12:15:00 AM 6.011 7.539
3/3/2023 12:30:00 AM 6.0107 7.4247
3/3/2023 12:45:00 AM 6.0066 7.3291
3/3/2023 1:00:00 AM 6.0062 7.3546
3/3/2023 1:15:00 AM 6.0035 7.2856
3/3/2023 1:30:00 AM 6.0012 7.2556
3/3/2023 1:45:00 AM 5.9986 7.2901
3/3/2023 2:00:00 AM 5.9961 7.2692
3/3/2023 2:15:00 AM 5.9961 7.2803
3/3/2023 2:30:00 AM 5.994 7.4404
3/3/2023 2:45:00 AM 5.9892 7.6
3/3/2023 3:00:00 AM 5.9918 7.7733
3/3/2023 3:15:00 AM 5.992 7.728
3/3/2023 3:30:00 AM 5.9916 7.4566
3/3/2023 3:45:00 AM 5.9886 7.3106
3/3/2023 4:00:00 AM 5.9872 7.1955
3/3/2023 4:15:00 AM 5.9872 7.0261
3/3/2023 4:30:00 AM 5.9862 7.1364
3/3/2023 4:45:00 AM 5.9831 7.3938
3/3/2023 5:00:00 AM 5.982 7.7712
3/3/2023 5:15:00 AM 5.9815 8.6084
3/3/2023 5:30:00 AM 5.9772 9.2134
3/3/2023 5:45:00 AM 5.978 9.9
3/3/2023 6:00:00 AM 5.9754 10.729
3/3/2023 6:15:00 AM 5.9723 10.1141
3/3/2023 6:30:00 AM 5.972 8.5326
3/3/2023 6:45:00 AM 5.9712 7.5948
3/3/2023 7:00:00 AM 5.9675 7.1443
3/3/2023 7:15:00 AM 5.9676 6.7856
3/3/2023 7:30:00 AM 5.9641 6.4794
3/3/2023 7:45:00 AM 5.9628 6.188
3/3/2023 8:00:00 AM 5.9622 5.9502
3/3/2023 8:15:00 AM 5.9609 5.9344
3/3/2023 8:30:00 AM 5.9585 5.9316
3/3/2023 8:45:00 AM 5.9598 5.9
3/3/2023 9:00:00 AM 5.9576 6.5862
3/3/2023 9:15:00 AM 5.958 6.2298
3/3/2023 9:30:00 AM 5.9581 5.9253
3/3/2023 9:45:00 AM 5.9579 5.8278
3/3/2023 10:00:00 AM 5.9579 5.658
3/3/2023 10:15:00 AM 5.9582 5.4525
3/3/2023 10:30:00 AM 5.958 5.4063
3/3/2023 10:45:00 AM 5.9586 5.2075
3/3/2023 11:00:00 AM 5.9579 5.0983
3/3/2023 11:15:00 AM 5.9582 4.9568
3/3/2023 11:30:00 AM 5.9608 4.8963
3/3/2023 11:45:00 AM 5.9626 4.9
3/3/2023 12:00:00 PM 5.9629 5.0225
3/3/2023 12:15:00 PM 5.9635 4.7773
3/3/2023 12:30:00 PM 5.9671 4.6069
3/3/2023 12:45:00 PM 5.9696 4.648
3/3/2023 1:00:00 PM 5.9723 4.5726
3/3/2023 1:15:00 PM 5.9766 4.5953
3/3/2023 1:30:00 PM 5.9813 4.4875
3/3/2023 1:45:00 PM 5.988 4.4457
3/3/2023 2:00:00 PM 5.9988 4.3419
3/3/2023 2:15:00 PM 6.0059 4.3154
3/3/2023 2:30:00 PM 6.0111 4.2696
3/3/2023 2:45:00 PM 6.0175 4.2476
3/3/2023 3:00:00 PM 6.0244 4.2587
3/3/2023 3:15:00 PM 6.0316 4.3428
3/3/2023 3:30:00 PM 6.0393 4.3403
3/3/2023 3:45:00 PM 6.0472 4.2329
3/3/2023 4:00:00 PM 6.0545 4.1747
3/3/2023 4:15:00 PM 6.0617 4.1084
3/3/2023 4:30:00 PM 6.0687 4.0484
3/3/2023 4:45:00 PM 6.074 4.0364
3/3/2023 5:00:00 PM 6.0788 4.1452
3/3/2023 5:15:00 PM 6.0828 4.2425
3/3/2023 5:30:00 PM 6.0873 4.0937
3/3/2023 5:45:00 PM 6.09 4.1
3/3/2023 6:00:00 PM 6.0899 3.9908
3/3/2023 6:15:00 PM 6.0929 3.9656
3/3/2023 6:30:00 PM 6.0929 3.953
3/3/2023 6:45:00 PM 6.0921 3.9618
3/3/2023 7:00:00 PM 6.0924 3.8982
3/3/2023 7:15:00 PM 6.0923 3.8892
3/3/2023 7:30:00 PM 6.0928 3.8443
3/3/2023 7:45:00 PM 6.0926 4.6618
3/3/2023 8:00:00 PM 6.0928 4.5515
3/3/2023 8:15:00 PM 6.0926 4.2426
3/3/2023 8:30:00 PM 6.0959 4.3164
3/3/2023 8:45:00 PM 6.0984 4.3
3/3/2023 9:00:00 PM 6.0976 4.2128
3/3/2023 9:15:00 PM 6.0964 4.1413
3/3/2023 9:30:00 PM 6.0935 4.2498
3/3/2023 9:45:00 PM 6.0924 4.6318
3/3/2023 10:00:00 PM 6.0912 4.9654
3/3/2023 10:15:00 PM 6.0877 4.6526
3/3/2023 10:30:00 PM 6.0856 5.818
3/3/2023 10:45:00 PM 6.0828 5.8764
3/3/2023 11:00:00 PM 6.0795 5.9089
3/3/2023 11:15:00 PM 6.0784 5.5289
3/3/2023 11:30:00 PM 6.0788 5.2173
3/3/2023 11:45:00 PM 6.076 5.1999
3/4/2023 12:00:00 AM 6.0723 5.0445
3/4/2023 12:15:00 AM 6.0692 5.2261
3/4/2023 12:30:00 AM 6.0664 5.7529
3/4/2023 12:45:00 AM 6.0638 6.4202
3/4/2023 1:00:00 AM 6.0624 6.6798
3/4/2023 1:15:00 AM 6.059 6.4128
3/4/2023 1:30:00 AM 6.0593 6.2678
3/4/2023 1:45:00 AM 6.0589 6.3203
3/4/2023 2:00:00 AM 6.0591 7.9061
3/4/2023 2:15:00 AM 6.0615 9.5556
3/4/2023 2:30:00 AM 6.0613 11.6823
3/4/2023 2:45:00 AM 6.0564 11
3/4/2023 3:00:00 AM 6.0564 8.7123
3/4/2023 3:15:00 AM 6.0538 8.1162
3/4/2023 3:30:00 AM 6.0511 7.4186
3/4/2023 3:45:00 AM 6.0492 7.1456
3/4/2023 4:00:00 AM 6.0463 6.7758
3/4/2023 4:15:00 AM 6.0445 6.5462
3/4/2023 4:30:00 AM 6.0426 6.8172
3/4/2023 4:45:00 AM 6.0396 6.9947
3/4/2023 5:00:00 AM 6.0356 7.8483
3/4/2023 5:15:00 AM 6.0314 8.365
3/4/2023 5:30:00 AM 6.0297 8.7371
3/4/2023 5:45:00 AM 6.0284 8.2998
3/4/2023 6:00:00 AM 6.0245 7.1588
3/4/2023 6:15:00 AM 6.0214 6.8433
3/4/2023 6:30:00 AM 6.0187 6.5434
3/4/2023 6:45:00 AM 6.0153 6.2896
3/4/2023 7:00:00 AM 6.0101 6.1601
3/4/2023 7:15:00 AM 6.0038 6.064
3/4/2023 7:30:00 AM 5.9984 6.0131
3/4/2023 7:45:00 AM 5.994 5.932
3/4/2023 8:00:00 AM 5.9886 6.1092
3/4/2023 8:15:00 AM 5.9848 5.9905
3/4/2023 8:30:00 AM 5.982 5.8652
3/4/2023 8:45:00 AM 5.9794 5.9
3/4/2023 9:00:00 AM 5.9772 5.6929
3/4/2023 9:15:00 AM 5.977 5.6465
3/4/2023 9:30:00 AM 5.9769 5.6074
3/4/2023 9:45:00 AM 5.977 5.5636
3/4/2023 10:00:00 AM 5.9772 5.5528
3/4/2023 10:15:00 AM 5.9775 5.5441
3/4/2023 10:30:00 AM 5.9779 5.539
3/4/2023 10:45:00 AM 5.977 5.5755
3/4/2023 11:00:00 AM 5.9795 5.6975
3/4/2023 11:15:00 AM 5.982 5.7977
3/4/2023 11:30:00 AM 5.983 5.9079
3/4/2023 11:45:00 AM 5.9878 5.9007
3/4/2023 12:00:00 PM 5.9866 6.5444
3/4/2023 12:15:00 PM 5.9867 7.8764
3/4/2023 12:30:00 PM 5.9904 9.1785
3/4/2023 12:45:00 PM 5.9917 9.6692
3/4/2023 1:00:00 PM 5.9948 10.0017
3/4/2023 1:15:00 PM 5.9975 10.5786
3/4/2023 1:30:00 PM 6.0015 11.5119
3/4/2023 1:45:00 PM 6.0054 12.5266
3/4/2023 2:00:00 PM 6.0093 13.5224
3/4/2023 2:15:00 PM 6.0118 14.098
3/4/2023 2:30:00 PM 6.0153 14.4753
3/4/2023 2:45:00 PM 6.0177 14.5682
3/4/2023 3:00:00 PM 6.0213 15.0436
3/4/2023 3:15:00 PM 6.0254 15.5995
3/4/2023 3:30:00 PM 6.0268 15.9059
3/4/2023 3:45:00 PM 6.0302 15.7167
3/4/2023 4:00:00 PM 6.0312 15.4717
3/4/2023 4:15:00 PM 6.0349 15.3824
3/4/2023 4:30:00 PM 6.0351 15.3351
3/4/2023 4:45:00 PM 6.0353 15.9194
3/4/2023 5:00:00 PM 6.0351 15.9322
3/4/2023 5:15:00 PM 6.0352 15.2138
3/4/2023 5:30:00 PM 6.0351 14.7116
3/4/2023 5:45:00 PM 6.0382 14.3999
3/4/2023 6:00:00 PM 6.0317 13.6832
3/4/2023 6:15:00 PM 6.0303 13.1265
3/4/2023 6:30:00 PM 6.0304 12.557
3/4/2023 6:45:00 PM 6.0275 11.9519
3/4/2023 7:00:00 PM 6.0255 11.3639
3/4/2023 7:15:00 PM 6.0252 10.6505
3/4/2023 7:30:00 PM 6.0231 10.2901
3/4/2023 7:45:00 PM 6.0209 10.168
3/4/2023 8:00:00 PM 6.0193 10.2139
3/4/2023 8:15:00 PM 6.0162 9.3459
3/4/2023 8:30:00 PM 6.0159 8.8037
3/4/2023 8:45:00 PM 6.0158 8.5999
3/4/2023 9:00:00 PM 6.0149 8.2854
3/4/2023 9:15:00 PM 6.0112 8.0649
3/4/2023 9:30:00 PM 6.0086 8.0504
3/4/2023 9:45:00 PM 6.0061 8.0652
3/4/2023 10:00:00 PM 6.002 7.9903
3/4/2023 10:15:00 PM 6.0009 7.9264
3/4/2023 10:30:00 PM 5.9967 7.9776
3/4/2023 10:45:00 PM 5.9962 8.0004
3/4/2023 11:00:00 PM 5.9923 8.0249
3/4/2023 11:15:00 PM 5.9904 8.1142
3/4/2023 11:30:00 PM 5.9865 8.0684
3/4/2023 11:45:00 PM 5.9892 8.1
3/5/2023 12:00:00 AM 5.9836 8.0316
3/5/2023 12:15:00 AM 5.9818 8.0485
3/5/2023 12:30:00 AM 5.978 8.0905
3/5/2023 12:45:00 AM 5.9767 8.124
3/5/2023 1:00:00 AM 5.9771 8.1442
3/5/2023 1:15:00 AM 5.9733 8.0859
3/5/2023 1:30:00 AM 5.9723 8.4244
3/5/2023 1:45:00 AM 5.9721 8.9829
3/5/2023 2:00:00 AM 5.9691 13.5816
3/5/2023 2:15:00 AM 5.9675 11.0569
3/5/2023 2:30:00 AM 5.9673 9.2256
3/5/2023 2:45:00 AM 5.964 8.9
3/5/2023 3:00:00 AM 5.963 8.116
3/5/2023 3:15:00 AM 5.9624 7.851
3/5/2023 3:30:00 AM 5.9609 8.0541
3/5/2023 3:45:00 AM 5.9583 8.7015
3/5/2023 4:00:00 AM 5.9581 9.4036
3/5/2023 4:15:00 AM 5.9528 9.2637
3/5/2023 4:30:00 AM 5.9529 9.0624
3/5/2023 4:45:00 AM 5.9495 9.9517
3/5/2023 5:00:00 AM 5.9482 8.3131
3/5/2023 5:15:00 AM 5.9445 7.6444
3/5/2023 5:30:00 AM 5.9436 7.413
3/5/2023 5:45:00 AM 5.9444 7.3
3/5/2023 6:00:00 AM 5.9373 7.3316
3/5/2023 6:15:00 AM 5.934 7.6672
3/5/2023 6:30:00 AM 5.9296 7.6114
3/5/2023 6:45:00 AM 5.9269 7.4543
3/5/2023 7:00:00 AM 5.9238 7.0543
3/5/2023 7:15:00 AM 5.9205 6.62
3/5/2023 7:30:00 AM 5.9186 6.3285
3/5/2023 7:45:00 AM 5.9145 6.2392
3/5/2023 8:00:00 AM 5.9137 6.185
3/5/2023 8:15:00 AM 5.9097 6.2528
3/5/2023 8:30:00 AM 5.9088 6.0411
3/5/2023 8:45:00 AM 5.908 5.9
3/5/2023 9:00:00 AM 5.9087 5.7561
3/5/2023 9:15:00 AM 5.9097 5.518
3/5/2023 9:30:00 AM 5.9131 5.3415
3/5/2023 9:45:00 AM 5.9135 5.2001
3/5/2023 10:00:00 AM 5.9142 5.1026
3/5/2023 10:15:00 AM 5.918 5.0262
3/5/2023 10:30:00 AM 5.9197 4.9134
3/5/2023 10:45:00 AM 5.9232 4.8261
3/5/2023 11:00:00 AM 5.9263 4.8051
3/5/2023 11:15:00 AM 5.93 4.7344
3/5/2023 11:30:00 AM 5.9338 4.6903
3/5/2023 11:45:00 AM 5.9402 4.7
3/5/2023 12:00:00 PM 5.9449 4.6263
3/5/2023 12:15:00 PM 5.9496 4.6457
3/5/2023 12:30:00 PM 5.9562 4.717
3/5/2023 12:45:00 PM 5.9637 4.9544
3/5/2023 1:00:00 PM 5.972 5.2009
3/5/2023 1:15:00 PM 5.9809 5.1652
3/5/2023 1:30:00 PM 5.9906 5.0832
3/5/2023 1:45:00 PM 5.9996 5.0387
3/5/2023 2:00:00 PM 6.0094 5.1129
3/5/2023 2:15:00 PM 6.0187 5.6138
3/5/2023 2:30:00 PM 6.029 5.2822
3/5/2023 2:45:00 PM 6.0392 5.1437
3/5/2023 3:00:00 PM 6.0484 5.6854
3/5/2023 3:15:00 PM 6.0589 6.1087
3/5/2023 3:30:00 PM 6.0678 6.1165
3/5/2023 3:45:00 PM 6.0776 6.369
3/5/2023 4:00:00 PM 6.0855 6.6479
3/5/2023 4:15:00 PM 6.093 6.9795
3/5/2023 4:30:00 PM 6.0977 7.2323
3/5/2023 4:45:00 PM 6.1021 7.59
3/5/2023 5:00:00 PM 6.1032 8.3368
3/5/2023 5:15:00 PM 6.1052 9.3383
3/5/2023 5:30:00 PM 6.1038 9.9226
3/5/2023 5:45:00 PM 6.1026 10
3/5/2023 6:00:00 PM 6.0996 10.0049
3/5/2023 6:15:00 PM 6.0973 10.0033
3/5/2023 6:30:00 PM 6.0928 9.8945
3/5/2023 6:45:00 PM 6.0882 9.8214
3/5/2023 7:00:00 PM 6.0826 9.8422
3/5/2023 7:15:00 PM 6.0765 9.6997
3/5/2023 7:30:00 PM 6.0709 9.436
3/5/2023 7:45:00 PM 6.0659 9.5758
3/5/2023 8:00:00 PM 6.0607 9.5422
3/5/2023 8:15:00 PM 6.0549 8.8429
3/5/2023 8:30:00 PM 6.0505 8.4808
3/5/2023 8:45:00 PM 6.0522 8.3
3/5/2023 9:00:00 PM 6.0426 7.847
3/5/2023 9:15:00 PM 6.039 7.5854
3/5/2023 9:30:00 PM 6.0356 7.3982
3/5/2023 9:45:00 PM 6.0306 7.233
3/5/2023 10:00:00 PM 6.0266 7.1244
3/5/2023 10:15:00 PM 6.0216 6.9756
3/5/2023 10:30:00 PM 6.0167 6.852
3/5/2023 10:45:00 PM 6.0113 6.6434
3/5/2023 11:00:00 PM 6.0058 6.3972
3/5/2023 11:15:00 PM 6.0022 6.2735
3/5/2023 11:30:00 PM 5.9995 6.2381
3/5/2023 11:45:00 PM 5.9976 6.1
3/6/2023 12:00:00 AM 5.9919 6.0061
3/6/2023 12:15:00 AM 5.9875 5.98
3/6/2023 12:30:00 AM 5.9838 6.006
3/6/2023 12:45:00 AM 5.9795 5.9145
3/6/2023 1:00:00 AM 5.9752 5.9785
3/6/2023 1:15:00 AM 5.9707 6.6218
3/6/2023 1:30:00 AM 5.967 6.7131
3/6/2023 1:45:00 AM 5.9626 6.5458
3/6/2023 2:00:00 AM 5.9588 6.6104
3/6/2023 2:15:00 AM 5.955 6.8133
3/6/2023 2:30:00 AM 5.9517 6.6856
3/6/2023 2:45:00 AM 5.9486 6.5
3/6/2023 3:00:00 AM 5.9458 6.2408
3/6/2023 3:15:00 AM 5.943 6.1359
3/6/2023 3:30:00 AM 5.9401 5.9643
3/6/2023 3:45:00 AM 5.9379 5.8655
3/6/2023 4:00:00 AM 5.9335 5.9255
3/6/2023 4:15:00 AM 5.9288 5.8469
3/6/2023 4:30:00 AM 5.9246 5.9394
3/6/2023 4:45:00 AM 5.92 5.6854
3/6/2023 5:00:00 AM 5.9156 5.635
3/6/2023 5:15:00 AM 5.9108 5.6433
3/6/2023 5:30:00 AM 5.9061 5.7733
3/6/2023 5:45:00 AM 5.901 5.9
3/6/2023 6:00:00 AM 5.8959 5.8936
3/6/2023 6:15:00 AM 5.892 5.7749
3/6/2023 6:30:00 AM 5.888 5.6479
3/6/2023 6:45:00 AM 5.8841 5.5869
3/6/2023 7:00:00 AM 5.88 5.5369
3/6/2023 7:15:00 AM 5.8761 5.4599
3/6/2023 7:30:00 AM 5.8735 6.0232
3/6/2023 7:45:00 AM 5.8701 6.3777
3/6/2023 8:00:00 AM 5.8698 6.1301
3/6/2023 8:15:00 AM 5.8672 5.9627
3/6/2023 8:30:00 AM 5.8662 5.9975
3/6/2023 8:45:00 AM 5.866 5.8
3/6/2023 9:00:00 AM 5.8701 5.4474
3/6/2023 9:15:00 AM 5.8709 5.2781
3/6/2023 9:30:00 AM 5.8742 5.4001
3/6/2023 9:45:00 AM 5.8766 5.1623
3/6/2023 10:00:00 AM 5.8801 4.9829
3/6/2023 10:15:00 AM 5.8844 4.8986
3/6/2023 10:30:00 AM 5.8889 4.8491
3/6/2023 10:45:00 AM 5.8937 4.7632
3/6/2023 11:00:00 AM 5.8986 4.7561
3/6/2023 11:15:00 AM 5.9034 4.7575
3/6/2023 11:30:00 AM 5.9086 4.7015
3/6/2023 11:45:00 AM 5.9066 4.7
3/6/2023 12:00:00 PM 5.9201 4.6531
3/6/2023 12:15:00 PM 5.9259 5.2824
3/6/2023 12:30:00 PM 5.9317 5.5164
3/6/2023 12:45:00 PM 5.9388 5.7518
3/6/2023 1:00:00 PM 5.9447 5.1912
3/6/2023 1:15:00 PM 5.9519 4.9896
3/6/2023 1:30:00 PM 5.9603 4.9557
3/6/2023 1:45:00 PM 5.9699 4.9366
3/6/2023 2:00:00 PM 5.9816 5.2145
3/6/2023 2:15:00 PM 5.993 5.1687
3/6/2023 2:30:00 PM 6.0055 4.994
3/6/2023 2:45:00 PM 6.0172 5.9709
3/6/2023 3:00:00 PM 6.024 5.1393
3/6/2023 3:15:00 PM 6.04 4.8619
3/6/2023 3:30:00 PM 6.0552 4.9128
3/6/2023 3:45:00 PM 6.0683 5.0744
3/6/2023 4:00:00 PM 6.08 5.1844
3/6/2023 4:15:00 PM 6.0902 5.312
3/6/2023 4:30:00 PM 6.0997 5.4611
3/6/2023 4:45:00 PM 6.1073 5.7601
3/6/2023 5:00:00 PM 6.1146 6.0866
3/6/2023 5:15:00 PM 6.1207 6.5084
3/6/2023 5:30:00 PM 6.1248 6.6663
3/6/2023 5:45:00 PM 6.1264 6.8
3/6/2023 6:00:00 PM 6.1261 6.8153
3/6/2023 6:15:00 PM 6.1253 6.8765
3/6/2023 6:30:00 PM 6.1212 6.5662
3/6/2023 6:45:00 PM 6.1179 6.4651
3/6/2023 7:00:00 PM 6.1125 6.4485
3/6/2023 7:15:00 PM 6.1064 6.6435
3/6/2023 7:30:00 PM 6.1014 7.3016
3/6/2023 7:45:00 PM 6.0953 6.8874
3/6/2023 8:00:00 PM 6.0896 6.7369
3/6/2023 8:15:00 PM 6.0845 6.5631
3/6/2023 8:30:00 PM 6.0795 6.4277
3/6/2023 8:45:00 PM 6.0788 6.4
3/6/2023 9:00:00 PM 6.0708 5.9948
3/6/2023 9:15:00 PM 6.0671 5.84
3/6/2023 9:30:00 PM 6.0636 5.64
3/6/2023 9:45:00 PM 6.0618 5.439
3/6/2023 10:00:00 PM 6.0584 5.3726
3/6/2023 10:15:00 PM 6.0543 5.3085
3/6/2023 10:30:00 PM 6.0511 5.2577
3/6/2023 10:45:00 PM 6.0448 5.2091
3/6/2023 11:00:00 PM 6.0398 5.2676
3/6/2023 11:15:00 PM 6.0341 5.071
3/6/2023 11:30:00 PM 6.0284 5.0101
3/6/2023 11:45:00 PM 6.027 5
3/7/2023 12:00:00 AM 6.017 5.4039
3/7/2023 12:15:00 AM 6.0106 5.5528
3/7/2023 12:30:00 AM 6.0036 5.3765
3/7/2023 12:45:00 AM 5.9993 5.5739
3/7/2023 1:00:00 AM 5.9951 5.6772
3/7/2023 1:15:00 AM 5.9899 5.7839
3/7/2023 1:30:00 AM 5.9853 5.3457
3/7/2023 1:45:00 AM 5.9811 5.2796
3/7/2023 2:00:00 AM 5.9772 5.1824
3/7/2023 2:15:00 AM 5.9738 5.1391
3/7/2023 2:30:00 AM 5.972 5.2404
3/7/2023 2:45:00 AM 5.9724 5.3
3/7/2023 3:00:00 AM 5.9647 5.9682
3/7/2023 3:15:00 AM 5.9598 5.4174
3/7/2023 3:30:00 AM 5.9553 5.387
3/7/2023 3:45:00 AM 5.9522 5.9871
3/7/2023 4:00:00 AM 5.9488 6.1152
3/7/2023 4:15:00 AM 5.9452 5.9294
3/7/2023 4:30:00 AM 5.941 5.7328
3/7/2023 4:45:00 AM 5.9385 6.0251
3/7/2023 5:00:00 AM 5.9347 5.9703
3/7/2023 5:15:00 AM 5.9314 6.1144
3/7/2023 5:30:00 AM 5.9281 6.0206
3/7/2023 5:45:00 AM 5.9234 5.9
3/7/2023 6:00:00 AM 5.9199 5.5607
3/7/2023 6:15:00 AM 5.9176 5.4753
3/7/2023 6:30:00 AM 5.9136 5.6237
3/7/2023 6:45:00 AM 5.9079 5.8931
3/7/2023 7:00:00 AM 5.9144 6.1979
3/7/2023 7:15:00 AM 5.9089 6.12
3/7/2023 7:30:00 AM 5.9024 5.8478
3/7/2023 7:45:00 AM 5.8996 5.7663
3/7/2023 8:00:00 AM 5.8981 5.8077
3/7/2023 8:15:00 AM 5.895 5.7259
3/7/2023 8:30:00 AM 5.8945 6.0315
3/7/2023 8:45:00 AM 5.894 6.2
3/7/2023 9:00:00 AM 5.8949 6.361
3/7/2023 9:15:00 AM 5.8965 6.2095
3/7/2023 9:30:00 AM 5.8989 5.9925
3/7/2023 9:45:00 AM 5.8994 5.8755
3/7/2023 10:00:00 AM 5.9002 5.8077
3/7/2023 10:15:00 AM 5.9039 5.8195
3/7/2023 10:30:00 AM 5.9057 6.0364
3/7/2023 10:45:00 AM 5.909 6.4921
3/7/2023 11:00:00 AM 5.9122 7.5719
3/7/2023 11:15:00 AM 5.9158 7.3481
3/7/2023 11:30:00 AM 5.9204 7.5088
3/7/2023 11:45:00 AM 5.922 7.7
3/7/2023 12:00:00 PM 5.9317 7.7819
3/7/2023 12:15:00 PM 5.9398 8.5168
3/7/2023 12:30:00 PM 5.9458 8.3192
3/7/2023 12:45:00 PM 5.9543 7.7063
3/7/2023 1:00:00 PM 5.9635 7.9317
3/7/2023 1:15:00 PM 5.9733 7.5971
3/7/2023 1:30:00 PM 5.9836 8.3061
3/7/2023 1:45:00 PM 5.9929 11.2383
3/7/2023 2:00:00 PM 6.0041 8.5613
3/7/2023 2:15:00 PM 6.0198 7.4872
3/7/2023 2:30:00 PM 6.0339 7.1726
3/7/2023 2:45:00 PM 6.0461 6.7003
3/7/2023 3:00:00 PM 6.0594 6.9022
3/7/2023 3:15:00 PM 6.0715 7.3766
3/7/2023 3:30:00 PM 6.083 7.0249
3/7/2023 3:45:00 PM 6.0933 7.16
3/7/2023 4:00:00 PM 6.1034 8.1437
3/7/2023 4:15:00 PM 6.1122 7.4455
3/7/2023 4:30:00 PM 6.1215 7.3491
3/7/2023 4:45:00 PM 6.1298 6.7376
3/7/2023 5:00:00 PM 6.137 6.3036
3/7/2023 5:15:00 PM 6.1432 6.4903
3/7/2023 5:30:00 PM 6.1484 6.8872
3/7/2023 5:45:00 PM 6.1516 6.6005
3/7/2023 6:00:00 PM 6.1571 6.031
3/7/2023 6:15:00 PM 6.1601 6.3092
3/7/2023 6:30:00 PM 6.1602 6.4768
3/7/2023 6:45:00 PM 6.1602 6.0082
3/7/2023 7:00:00 PM 6.1574 5.7225
3/7/2023 7:15:00 PM 6.1545 5.4267
3/7/2023 7:30:00 PM 6.1505 5.3217
3/7/2023 7:45:00 PM 6.1455 5.255
3/7/2023 8:00:00 PM 6.1396 5.1687
3/7/2023 8:15:00 PM 6.1348 4.9625
3/7/2023 8:30:00 PM 6.1292 4.8492
3/7/2023 8:45:00 PM 6.1222 4.8001
3/7/2023 9:00:00 PM 6.1185 4.6645
3/7/2023 9:15:00 PM 6.1133 4.6264
3/7/2023 9:30:00 PM 6.109 4.577
3/7/2023 9:45:00 PM 6.1041 4.5469
3/7/2023 10:00:00 PM 6.1 4.5775
3/7/2023 10:15:00 PM 6.0958 4.5627
3/7/2023 10:30:00 PM 6.0907 4.6278
3/7/2023 10:45:00 PM 6.0852 4.6741
3/7/2023 11:00:00 PM 6.0804 4.6144
3/7/2023 11:15:00 PM 6.0755 4.4611
3/7/2023 11:30:00 PM 6.0699 4.4514
3/7/2023 11:45:00 PM 6.0646 4.5217
3/8/2023 12:00:00 AM 6.0583 4.5383
3/8/2023 12:15:00 AM 6.0527 4.4381
3/8/2023 12:30:00 AM 6.047 4.4809
3/8/2023 12:45:00 AM 6.0413 5.0789
3/8/2023 1:00:00 AM 6.0371 5.1774
3/8/2023 1:15:00 AM 6.0321 4.9628
3/8/2023 1:30:00 AM 6.0272 4.9036
3/8/2023 1:45:00 AM 6.0233 4.7495
3/8/2023 2:00:00 AM 6.019 4.6215
3/8/2023 2:15:00 AM 6.016 5.0539
3/8/2023 2:30:00 AM 6.0118 5.5464
3/8/2023 2:45:00 AM 6.013 5.8999
3/8/2023 3:00:00 AM 6.0058 5.4393
3/8/2023 3:15:00 AM 6.0012 5.0452
3/8/2023 3:30:00 AM 5.9969 4.8395
3/8/2023 3:45:00 AM 5.9938 5.0337
3/8/2023 4:00:00 AM 5.9913 4.8847
3/8/2023 4:15:00 AM 5.9866 4.7488
3/8/2023 4:30:00 AM 5.983 4.6414
3/8/2023 4:45:00 AM 5.9792 4.4078
3/8/2023 5:00:00 AM 5.9752 4.3769
3/8/2023 5:15:00 AM 5.9722 4.3705
3/8/2023 5:30:00 AM 5.9673 4.3764
3/8/2023 5:45:00 AM 5.9612 4.2999
3/8/2023 6:00:00 AM 5.958 4.0824
3/8/2023 6:15:00 AM 5.954 4.0385
3/8/2023 6:30:00 AM 5.9494 4.1429
3/8/2023 6:45:00 AM 5.9457 4.4373
3/8/2023 7:00:00 AM 5.941 4.2422
3/8/2023 7:15:00 AM 5.9366 4.2524
3/8/2023 7:30:00 AM 5.9325 4.4375
3/8/2023 7:45:00 AM 5.9287 4.3394
3/8/2023 8:00:00 AM 5.9244 4.3358
3/8/2023 8:15:00 AM 5.9198 4.7021
3/8/2023 8:30:00 AM 5.9182 8.0514
3/8/2023 8:45:00 AM 5.9206 5
3/8/2023 9:00:00 AM 5.9141 5.2334
3/8/2023 9:15:00 AM 5.9139 4.4268
3/8/2023 9:30:00 AM 5.9144 4.1279
3/8/2023 9:45:00 AM 5.9141 18.9368
3/8/2023 10:00:00 AM 5.9143 12.6586
3/8/2023 10:15:00 AM 5.9154 10.3642
3/8/2023 10:30:00 AM 5.919 6.1004
3/8/2023 10:45:00 AM 5.9213 5.3037
3/8/2023 11:00:00 AM 5.9244 4.9264
3/8/2023 11:15:00 AM 5.9285 4.7438
3/8/2023 11:30:00 AM 5.9299 4.6255
3/8/2023 11:45:00 AM 5.929 4.5
3/8/2023 12:00:00 PM 5.9385 4.4743
3/8/2023 12:15:00 PM 5.9437 4.4647
3/8/2023 12:30:00 PM 5.9493 4.4497
3/8/2023 12:45:00 PM 5.9555 4.3948
3/8/2023 1:00:00 PM 5.9634 4.2567
3/8/2023 1:15:00 PM 5.9718 4.2029
3/8/2023 1:30:00 PM 5.9819 4.1271
3/8/2023 1:45:00 PM 5.9934 4.1988
3/8/2023 2:00:00 PM 6.0051 4.1166
3/8/2023 2:15:00 PM 6.0166 3.97
3/8/2023 2:30:00 PM 6.0293 3.9651
3/8/2023 2:45:00 PM 6.0424 4.1157
3/8/2023 3:00:00 PM 6.0559 4.178
3/8/2023 3:15:00 PM 6.0707 4.1674
3/8/2023 3:30:00 PM 6.086 4.0962
3/8/2023 3:45:00 PM 6.1021 4.1967
3/8/2023 4:00:00 PM 6.1182 4.2201
3/8/2023 4:15:00 PM 6.1328 4.1254
3/8/2023 4:30:00 PM 6.1475 4.1216
3/8/2023 4:45:00 PM 6.1616 4.784
3/8/2023 5:00:00 PM 6.1761 4.6784
3/8/2023 5:15:00 PM 6.1882 4.6562
3/8/2023 5:30:00 PM 6.1995 4.4757
3/8/2023 5:45:00 PM 6.2062 4.8
3/8/2023 6:00:00 PM 6.2154 4.2566
3/8/2023 6:15:00 PM 6.2206 4.0992
3/8/2023 6:30:00 PM 6.2236 4.2703
3/8/2023 6:45:00 PM 6.2249 4.3754
3/8/2023 7:00:00 PM 6.2248 4.2542
3/8/2023 7:15:00 PM 6.2233 3.9119
3/8/2023 7:30:00 PM 6.2235 3.7249

These are provisional data and have not been subject to a quality assurance process, but rather are the raw data reported by the instrument.
H: value is above sensor operating range
L: value is below sensor operating range
Offline: station is not reporting data
NC: parameter is not collected at site

Data Availability & Limitations

Uncertainty and potential for error can be associated with environmental monitoring data. Provisional data have not been subject to a quality assurance process, but rather are the raw data reported by the instrument. Data users are cautioned to consider carefully the provisional nature of the information before using it for decisions that concern personal or public safety or the conduct of business that involves substantial monetary or operational consequences.

Approved data are currently available by request by emailing: [email protected]. Approved data have been subject to a quality assurance process to correct for equipment or fouling drift. Data recorded during equipment malfunctions have been removed.

View Historical Stations that have been discontinued.